Laatste waarneming: 17:21
Temperatuur:18,6°C
Dauwpunt:14,9°C
Rel. vocht:79,2%
Natte-bol:17,0°C
Wind (gem. 10 min.):13,2 m/s
Wind (max. 10 min.):14.3053 m/s
Windrichting:254°
Neerslagsom:3,8 mm
Neerslagintensiteit:0,0 mm/u
Luchtdruk:1009,9 hPa
Straling:131,6 W/m2
 
Maximumtemp.:18,8°C (12:03)
Minimumtemp.:15,0°C (12:47)
Hoogste windstoot:19,2 m/s (12:24)


Bekijk de verwachting.

Bekijk de grafieken.
Bekijk het weekoverzicht.
Bekijk het maandoverzicht.
Bekijk het jaaroverzicht.
Dagtabel
Tijd Temp. Dauwp. Natte-bol Rel. Hum. Windsnelh. Windricht. Windstoot Neerslag Straling Luchtdruk
 
17:21 18,6 14,9 17,0 79,2 13,2 254 - 3,8 132 1.009,9
17:20 18,6 15,1 17,1 79,7 12,4 255 - 3,8 150 1.009,9
17:19 18,6 14,8 16,9 78,5 11,9 234 - 3,8 175 1.009,9
17:18 18,6 14,7 16,9 78,0 12,2 237 - 3,8 234 1.009,9
17:17 18,6 14,7 16,9 78,0 12,1 231 15,2 3,8 424 1.009,9
17:16 18,6 14,7 16,9 78,0 12,1 262 - 3,8 424 1.009,9
17:15 18,5 14,7 16,8 78,0 12,1 237 - 3,8 474 1.009,8
17:14 18,5 14,7 16,8 78,0 11,9 243 - 3,8 335 1.009,8
17:13 18,5 14,6 16,8 78,0 12,2 281 - 3,8 258 1.009,7
17:12 18,4 14,7 16,8 78,7 12,8 257 - 3,8 259 1.009,7
17:11 18,4 14,6 16,7 78,2 12,8 259 16,1 3,8 265 1.009,7
17:10 18,4 14,6 16,7 78,0 12,5 251 - 3,8 260 1.009,8
17:09 18,4 14,6 16,7 78,3 11,8 267 - 3,8 252 1.009,8
17:08 18,4 14,7 16,8 79,0 11,7 232 - 3,8 245 1.009,8
17:07 18,4 14,7 16,8 79,0 11,5 241 - 3,8 248 1.009,8
17:06 18,3 14,5 16,7 78,3 12,2 271 - 3,8 240 1.009,7
17:05 18,3 14,4 16,6 78,0 13,0 259 - 3,8 209 1.009,7
17:04 18,3 14,6 16,7 79,1 13,0 263 - 3,8 175 1.009,8
17:03 18,3 14,8 16,8 79,8 12,7 271 - 3,8 137 1.009,8
17:02 18,2 14,6 16,7 79,0 12,5 271 - 3,8 109 1.009,8
17:01 18,2 14,7 16,7 79,6 12,0 256 - 3,8 91 1.009,8
17:00 18,2 14,7 16,8 80,0 11,8 236 - 3,8 78 1.009,8
 
16:59 18,2 14,7 16,7 80,0 12,1 264 - 3,8 73 1.009,7
16:58 18,1 14,8 16,8 80,8 12,7 239 - 3,8 72 1.009,7
16:57 18,1 14,6 16,6 80,0 12,9 253 - 3,8 70 1.009,6
16:56 18,1 14,7 16,7 80,5 11,9 233 - 3,8 67 1.009,7
16:55 18,1 15,0 16,9 82,2 10,8 274 - 3,8 67 1.009,8
16:54 18,0 15,0 16,9 82,3 10,1 241 - 3,8 69 1.009,9
16:53 18,0 14,9 16,9 82,0 9,9 260 - 3,8 72 1.009,8
16:52 18,0 14,9 16,8 82,0 9,7 261 - 3,8 82 1.009,8
16:51 17,9 14,8 16,8 82,0 9,6 249 - 3,8 88 1.009,8
16:50 17,9 14,8 16,7 82,0 9,9 232 - 3,8 92 1.009,8
16:49 17,9 14,8 16,7 82,0 9,2 212 - 3,8 95 1.009,8
16:48 17,8 14,7 16,7 82,0 9,4 283 - 3,8 97 1.009,8
16:47 17,8 14,7 16,7 82,0 10,6 247 - 3,8 99 1.009,7
16:46 17,8 14,7 16,6 82,0 10,2 265 - 3,8 100 1.009,7
16:45 17,8 14,8 16,7 82,4 9,9 212 13,0 3,8 100 1.009,7
16:44 17,8 14,9 16,8 83,0 10,3 208 - 3,8 98 1.009,7
16:43 17,9 14,9 16,8 83,0 10,0 241 - 3,8 97 1.009,7
16:42 17,9 15,0 16,9 83,0 10,4 234 - 3,8 94 1.009,7
16:41 17,9 15,0 16,9 83,0 10,5 252 - 3,8 91 1.009,7
16:40 17,9 15,0 16,9 83,0 10,1 253 - 3,8 93 1.009,7
16:39 17,9 14,9 16,8 82,7 9,5 264 - 3,8 97 1.009,7
16:38 17,9 14,9 16,8 82,5 9,1 280 12,5 3,8 101 1.009,6
16:37 17,9 14,9 16,8 82,4 10,0 212 13,9 3,8 105 1.009,6
16:36 17,8 14,7 16,7 82,0 10,7 253 - 3,8 108 1.009,6
16:35 17,8 14,7 16,6 82,0 10,6 264 - 3,8 115 1.009,6
16:34 17,8 14,8 16,7 82,3 10,5 226 - 3,8 128 1.009,5
16:33 17,8 14,9 16,8 82,7 10,9 243 - 3,8 138 1.009,5
16:32 17,8 14,8 16,7 82,5 10,6 263 - 3,8 139 1.009,5
16:31 17,8 14,9 16,8 83,0 10,1 214 - 3,8 133 1.009,5
16:30 17,8 14,7 16,6 82,2 10,3 250 - 3,8 127 1.009,5
16:29 17,8 14,8 16,7 82,9 10,5 249 - 3,8 123 1.009,5
16:28 17,7 14,6 16,6 82,0 10,9 284 - 3,8 121 1.009,4
16:27 17,7 14,6 16,6 82,0 11,4 265 - 3,8 121 1.009,4
16:26 17,7 14,6 16,6 82,0 11,8 257 - 3,8 123 1.009,4
16:25 17,7 14,6 16,6 82,0 11,6 255 - 3,8 125 1.009,4
16:24 17,7 14,6 16,6 82,0 10,8 250 - 3,8 125 1.009,4
16:23 17,7 14,6 16,6 82,0 10,3 234 - 3,8 123 1.009,4
16:22 17,7 14,6 16,5 82,0 10,4 262 - 3,8 118 1.009,4
16:21 17,7 14,6 16,5 82,0 10,8 258 - 3,8 114 1.009,4
16:20 17,7 14,6 16,5 82,0 10,4 257 - 3,8 111 1.009,4
16:19 17,7 14,5 16,4 81,3 10,5 222 - 3,8 111 1.009,4
16:18 17,7 14,4 16,4 81,0 11,0 242 - 3,8 115 1.009,3
16:17 17,7 14,4 16,4 81,0 11,0 216 - 3,8 122 1.009,3
16:16 17,7 14,4 16,4 81,0 11,2 215 - 3,8 132 1.009,3
16:15 17,7 14,4 16,3 80,6 11,5 239 - 3,8 145 1.009,2
16:14 17,7 14,3 16,3 80,0 12,4 253 - 3,8 160 1.009,1
16:13 17,8 14,3 16,4 80,0 12,4 247 - 3,8 177 1.009,2
16:12 17,9 14,6 16,6 80,9 11,5 228 15,6 3,8 194 1.009,2
16:11 17,9 14,4 16,4 80,1 10,4 205 - 3,8 218 1.009,1
16:10 17,8 14,4 16,4 80,0 10,4 257 13,9 3,8 235 1.009,1
16:09 17,9 14,4 16,4 80,0 11,5 238 - 3,8 237 1.009,0
16:08 17,8 14,3 16,3 79,4 11,9 237 - 3,8 233 1.009,0
16:07 17,9 14,4 16,4 79,8 11,8 228 - 3,8 194 1.009,1
16:06 17,8 14,2 16,3 79,1 11,6 241 - 3,8 173 1.009,2
16:05 17,8 14,2 16,3 79,0 11,8 250 - 3,8 162 1.009,1
16:04 17,9 14,2 16,3 79,0 12,5 231 - 3,8 157 1.009,0
16:03 18,0 14,4 16,5 79,5 12,6 236 - 3,8 139 1.009,0
16:02 18,0 14,4 16,5 79,4 12,4 243 - 3,8 128 1.008,9
16:01 18,0 14,4 16,4 79,0 12,8 254 - 3,8 131 1.008,8
16:00 18,1 14,4 16,5 79,1 13,7 236 - 3,8 142 1.008,7
 
15:59 18,1 14,7 16,7 80,6 14,3 231 - 3,8 149 1.008,7
15:58 18,1 14,6 16,6 80,0 13,3 226 - 3,8 158 1.008,7
15:57 18,0 14,5 16,6 80,0 12,3 260 - 3,8 202 1.008,7
15:56 18,0 14,5 16,6 80,0 12,6 255 - 3,8 208 1.008,7
15:55 17,9 14,6 16,6 80,8 12,9 273 - 3,8 194 1.008,8
15:54 17,9 14,6 16,6 81,0 12,6 259 - 3,8 177 1.008,7
15:53 17,9 14,6 16,6 81,0 12,3 245 - 3,8 163 1.008,7
15:52 17,9 14,6 16,6 81,0 11,8 263 - 3,8 160 1.008,7
15:51 17,8 14,5 16,5 81,0 11,4 230 - 3,8 156 1.008,6
15:50 17,8 14,6 16,6 81,7 11,3 274 14,3 3,8 149 1.008,7
15:49 17,7 14,6 16,6 82,0 11,6 252 - 3,8 146 1.008,7
15:48 17,7 14,5 16,4 81,2 11,7 251 - 3,8 149 1.008,6
15:47 17,7 14,6 16,5 82,0 11,3 244 - 3,8 158 1.008,5
15:46 17,7 14,5 16,4 81,6 11,1 279 - 3,8 167 1.008,6
15:45 17,6 14,4 16,3 81,0 11,4 255 - 3,8 172 1.008,6
15:44 17,6 14,5 16,4 81,7 11,3 260 - 3,8 171 1.008,5
15:43 17,6 14,4 16,4 81,2 10,9 250 - 3,8 163 1.008,5
15:42 17,6 14,3 16,3 81,0 10,4 261 - 3,8 147 1.008,5
15:41 17,6 14,4 16,3 81,0 9,7 274 13,0 3,8 126 1.008,5
15:40 17,7 14,4 16,4 81,0 10,3 211 13,9 3,8 105 1.008,4
15:39 17,7 14,4 16,4 81,0 11,7 276 16,5 3,8 89 1.008,6
15:38 17,7 14,4 16,4 81,0 13,1 252 - 3,8 81 1.008,6
15:37 17,6 14,4 16,3 81,0 12,9 268 - 3,8 89 1.008,7
15:36 17,6 14,2 16,2 80,2 13,0 269 - 3,8 111 1.008,6
15:35 17,6 14,3 16,2 81,0 12,4 252 - 3,8 136 1.008,6
15:34 17,5 14,2 16,2 81,0 12,2 230 - 3,8 159 1.008,7
15:33 17,5 14,2 16,2 81,0 11,7 267 - 3,8 180 1.008,7
15:32 17,5 14,1 16,1 80,3 12,2 271 - 3,8 210 1.008,7
15:31 17,7 14,4 16,4 80,9 12,5 242 - 3,8 239 1.008,7
15:30 17,8 14,6 16,5 81,0 13,0 260 - 3,8 276 1.008,7
15:29 18,0 14,7 16,7 80,7 13,5 263 - 3,8 295 1.008,6
15:28 18,1 14,6 16,6 79,6 14,3 259 - 3,8 331 1.008,4
15:27 18,2 14,5 16,6 79,0 13,2 263 - 3,8 299 1.008,5
15:26 18,2 14,5 16,6 79,0 12,0 217 - 3,8 280 1.008,6
15:25 18,1 14,2 16,4 78,1 10,9 226 - 3,8 213 1.008,7
15:24 18,1 14,2 16,4 78,2 10,7 265 - 3,8 173 1.008,7
15:23 18,1 14,4 16,5 79,0 10,7 237 - 3,8 162 1.008,7
15:22 18,1 14,5 16,6 79,5 11,0 248 - 3,8 204 1.008,6
15:21 18,2 14,8 16,8 80,6 10,8 253 - 3,8 217 1.008,6
15:20 18,1 14,7 16,7 80,3 10,4 237 - 3,8 266 1.008,7
15:19 18,1 14,7 16,7 80,1 10,1 263 - 3,8 352 1.008,7
15:18 18,1 14,8 16,8 80,8 10,1 246 - 3,8 444 1.008,6
15:17 18,0 14,6 16,6 80,4 10,2 243 - 3,8 491 1.008,6
15:16 17,9 14,5 16,5 80,5 10,3 237 - 3,8 405 1.008,6
15:15 17,8 14,5 16,5 80,7 10,2 264 - 3,8 388 1.008,6
15:14 17,8 14,5 16,5 81,0 8,9 275 - 3,8 375 1.008,7
15:13 17,7 14,4 16,4 81,0 8,2 206 - 3,8 336 1.008,7
15:12 17,7 14,3 16,3 80,8 8,9 255 - 3,8 333 1.008,6
15:11 17,6 14,2 16,2 80,0 9,8 241 - 3,8 320 1.008,5
15:10 17,6 14,2 16,2 80,0 10,6 237 - 3,8 301 1.008,4
15:09 17,6 14,2 16,2 80,0 10,9 234 - 3,8 264 1.008,5
15:08 17,7 14,3 16,3 80,0 11,1 244 - 3,8 253 1.008,5
15:07 17,8 14,2 16,2 79,2 11,2 247 - 3,8 226 1.008,4
15:06 17,9 14,4 16,4 80,0 11,6 253 - 3,8 215 1.008,3
15:05 18,0 14,5 16,5 80,0 11,6 242 - 3,8 215 1.008,4
15:04 18,0 14,4 16,4 79,5 11,4 250 - 3,8 225 1.008,4
15:03 17,9 14,4 16,5 79,7 11,5 249 - 3,8 347 1.008,3
15:02 17,9 14,3 16,4 79,2 11,9 247 - 3,8 341 1.008,2
15:01 17,9 14,2 16,3 79,0 10,7 249 13,9 3,8 303 1.008,2
15:00 17,9 14,2 16,3 79,0 10,9 184 14,3 3,8 272 1.008,2
 
14:59 17,9 14,2 16,3 79,0 11,2 237 14,3 3,8 260 1.008,2
14:58 17,8 14,2 16,3 79,0 12,3 250 - 3,8 278 1.008,2
14:57 17,9 14,2 16,3 79,0 12,2 257 - 3,8 266 1.008,2
14:56 17,9 14,2 16,3 79,0 12,2 249 - 3,8 259 1.008,2
14:55 17,9 14,2 16,3 79,0 11,6 247 - 3,8 258 1.008,1
14:54 17,9 14,2 16,3 79,0 11,2 215 - 3,8 261 1.008,1
14:53 17,9 14,2 16,3 79,0 10,8 219 - 3,8 290 1.008,2
14:52 17,9 14,1 16,2 78,4 11,1 249 - 3,8 324 1.008,1
14:51 17,8 14,1 16,2 78,8 11,4 226 - 3,8 426 1.008,1
14:50 17,8 14,2 16,2 79,0 11,7 247 - 3,8 547 1.008,1
14:49 17,8 14,4 16,4 80,1 11,9 247 - 3,8 547 1.008,1
14:48 17,8 14,5 16,5 81,0 11,9 234 - 3,8 573 1.008,1
14:47 17,7 14,5 16,4 81,0 12,0 264 16,1 3,8 648 1.008,1
14:46 17,7 14,5 16,4 81,6 12,4 245 - 3,8 521 1.008,0
14:45 17,6 14,5 16,4 82,0 12,3 255 - 3,8 521 1.008,1
14:44 17,5 14,4 16,3 82,0 11,8 258 - 3,8 551 1.008,1
14:43 17,4 14,4 16,3 82,2 11,6 222 15,2 3,8 634 1.008,1
14:42 17,3 14,4 16,3 82,7 10,9 238 - 3,8 691 1.008,1
14:41 17,2 14,2 16,1 82,0 10,3 263 - 3,8 736 1.008,2
14:40 17,2 14,0 15,9 81,4 10,5 258 - 3,8 775 1.008,1
14:39 17,3 14,0 16,0 81,0 11,6 252 - 3,8 315 1.008,0
14:38 17,4 14,3 16,2 81,9 11,9 240 15,2 3,8 315 1.007,9
14:37 17,6 14,3 16,3 81,0 12,9 197 - 3,8 266 1.007,9
14:36 17,8 14,5 16,4 81,0 12,5 240 17,4 3,8 186 1.007,9
14:35 17,8 14,5 16,5 81,0 13,2 264 17,0 3,8 144 1.007,9
14:34 17,8 14,5 16,5 81,0 13,0 277 - 3,8 120 1.007,9
14:33 17,8 14,5 16,5 81,0 12,9 259 - 3,8 107 1.007,9
14:32 17,8 14,6 16,5 81,0 12,9 265 - 3,8 100 1.007,9
14:31 17,8 14,5 16,5 80,8 13,0 255 - 3,8 96 1.007,8
14:30 17,8 14,4 16,4 80,4 12,8 252 - 3,8 99 1.007,9
14:29 17,9 14,5 16,5 80,3 12,3 244 - 3,8 115 1.007,9
14:28 18,0 14,6 16,6 80,0 12,0 268 - 3,8 527 1.007,9
14:27 18,0 14,7 16,7 80,8 11,5 264 - 3,8 548 1.007,9
14:26 18,0 14,7 16,7 81,1 10,4 249 - 3,8 411 1.008,0
14:25 17,9 14,8 16,7 81,8 9,4 278 - 3,8 243 1.008,0
14:24 17,8 14,6 16,5 81,0 9,2 253 - 3,8 243 1.007,9
14:23 17,8 14,5 16,5 81,0 9,7 236 - 3,8 243 1.007,9
14:22 17,8 14,5 16,5 81,0 9,9 215 - 3,8 243 1.007,9
14:21 17,8 14,7 16,6 81,9 9,1 232 - 3,8 241 1.007,9
14:20 17,8 14,7 16,7 82,0 8,9 263 - 3,8 321 1.007,9
14:19 17,8 14,6 16,6 81,8 8,9 238 - 3,8 424 1.007,9
14:18 17,7 14,5 16,5 81,4 9,3 233 - 3,8 435 1.007,9
14:17 17,7 14,6 16,5 82,0 9,4 234 - 3,8 517 1.007,8
14:16 17,7 14,4 16,4 81,3 9,9 253 - 3,8 491 1.007,8
14:15 17,7 14,6 16,5 82,0 10,2 239 - 3,8 204 1.007,8
14:14 17,7 14,6 16,5 82,0 9,7 231 - 3,8 254 1.007,8
14:13 17,7 14,6 16,5 82,0 9,5 191 - 3,8 241 1.007,8
14:12 17,7 14,6 16,5 82,0 9,5 230 - 3,8 248 1.007,8
14:11 17,6 14,5 16,5 82,0 10,3 238 - 3,8 194 1.007,8
14:10 17,6 14,3 16,3 81,1 10,9 234 - 3,8 214 1.007,7
14:09 17,6 14,3 16,3 81,0 11,7 264 15,2 3,8 193 1.007,6
14:08 17,6 14,5 16,4 82,0 11,8 261 - 3,8 173 1.007,6
14:07 17,6 14,5 16,4 82,0 11,3 236 - 3,8 163 1.007,7
14:06 17,6 14,6 16,5 82,5 9,5 245 13,4 3,8 161 1.007,7
14:05 17,6 14,7 16,6 83,0 8,9 172 13,4 3,8 186 1.007,7
14:04 17,7 14,6 16,5 82,3 8,8 236 12,1 3,8 200 1.007,6
14:03 17,7 14,8 16,7 83,0 10,5 257 - 3,8 190 1.007,6
14:02 17,8 15,1 16,9 84,2 10,4 229 - 3,8 492 1.007,6
14:01 17,7 15,1 16,9 84,7 10,0 234 - 3,8 744 1.007,7
14:00 17,7 14,9 16,8 84,0 9,5 228 - 3,8 319 1.007,7
 
13:59 17,7 15,0 16,9 84,6 9,9 207 - 3,8 244 1.007,6
13:58 17,6 14,9 16,8 84,3 10,6 226 - 3,8 796 1.007,6
13:57 17,6 15,0 16,8 84,9 10,7 234 - 3,8 542 1.007,6
13:56 17,5 15,0 16,8 85,0 10,5 256 - 3,8 162 1.007,6
13:55 17,5 15,0 16,8 85,4 9,9 259 - 3,8 530 1.007,7
13:54 17,4 15,1 16,8 86,0 9,7 244 - 3,8 687 1.007,7
13:53 17,4 14,9 16,6 85,4 10,3 236 - 3,8 702 1.007,6
13:52 17,3 14,8 16,6 85,0 11,5 246 - 3,8 752 1.007,5
13:51 17,4 15,0 16,7 86,1 11,6 228 - 3,8 752 1.007,6
13:50 17,4 15,3 17,0 87,3 10,4 230 - 3,8 720 1.007,7
13:49 17,3 15,3 17,0 88,0 8,6 215 - 3,8 653 1.007,7
13:48 17,3 15,3 16,9 88,0 7,4 236 - 3,8 641 1.007,7
13:47 17,2 15,2 16,8 88,0 7,0 197 - 3,8 627 1.007,7
13:46 17,1 15,3 16,9 88,8 6,5 225 - 3,8 612 1.007,7
13:45 17,0 15,2 16,8 89,0 6,8 258 - 3,8 607 1.007,7
13:44 16,9 15,1 16,7 89,0 7,3 230 - 3,8 604 1.007,7
13:43 16,8 15,0 16,5 89,0 7,8 244 - 3,8 600 1.007,7
13:42 16,7 14,9 16,5 89,0 7,6 244 - 3,8 598 1.007,8
13:41 16,6 14,8 16,3 89,0 6,6 247 - 3,8 598 1.007,8
13:40 16,5 14,6 16,2 89,0 5,9 252 - 3,8 603 1.007,8
13:39 16,4 14,4 16,0 88,1 5,8 274 - 3,8 411 1.007,8
13:38 16,3 14,3 15,9 88,0 5,9 234 - 3,8 165 1.007,9
13:37 16,3 14,3 15,9 88,0 5,5 209 - 3,8 165 1.007,9
13:36 16,3 14,3 15,9 88,0 5,5 284 - 3,8 165 1.007,8
13:35 16,3 14,3 15,9 88,0 6,9 206 - 3,8 166 1.007,8
13:34 16,3 14,3 15,9 88,0 9,4 207 - 3,8 173 1.007,7
13:33 16,3 14,3 15,9 88,0 10,1 229 - 3,8 172 1.007,7
13:32 16,2 14,2 15,8 88,0 10,1 213 - 3,8 165 1.007,7
13:31 16,2 14,1 15,7 87,6 10,5 255 - 3,6 162 1.007,7
13:30 16,2 14,0 15,6 87,0 10,7 243 - 3,6 145 1.007,7
13:29 16,3 14,1 15,7 87,1 11,0 211 - 3,6 124 1.007,7
13:28 16,4 14,4 16,0 88,0 11,2 247 - 3,6 115 1.007,7
13:27 16,4 14,4 16,0 87,9 11,8 251 - 3,6 127 1.007,7
13:26 16,4 14,3 15,9 87,0 12,2 237 15,2 3,6 143 1.007,7
13:25 16,5 14,3 16,0 87,0 12,4 251 - 3,6 140 1.007,6
13:24 16,6 14,4 16,1 87,0 11,5 276 14,8 3,6 127 1.007,7
13:23 16,6 14,4 16,1 87,0 10,1 213 16,5 3,6 115 1.008,1
13:22 16,6 14,4 16,0 87,0 9,9 213 13,4 3,6 109 1.008,0
13:21 16,6 14,4 16,0 87,0 9,1 251 13,0 3,6 135 1.007,8
13:20 16,6 14,4 16,0 87,0 8,9 219 - 3,6 195 1.007,8
13:19 16,6 14,5 16,1 87,5 8,3 227 - 3,6 259 1.007,7
13:18 16,6 14,7 16,2 88,6 7,9 184 11,6 3,6 345 1.007,8
13:17 16,5 14,7 16,2 89,0 7,4 230 - 3,6 731 1.007,8
13:16 16,4 14,6 16,1 89,0 6,5 220 11,2 3,6 731 1.007,8
13:15 16,3 14,5 16,0 89,0 5,8 184 - 3,6 731 1.007,8
13:14 16,2 14,4 15,9 89,0 6,1 196 - 3,6 715 1.007,7
13:13 16,1 14,3 15,8 89,0 5,7 195 9,4 3,6 704 1.007,7
13:12 16,0 14,1 15,7 89,0 5,5 146 - 3,6 692 1.007,7
13:11 15,9 14,0 15,6 89,0 5,5 208 - 3,6 608 1.007,7
13:10 15,8 14,0 15,5 89,0 6,3 205 - 3,6 473 1.007,7
13:09 15,7 13,9 15,4 89,0 5,8 189 9,8 3,6 271 1.007,7
13:08 15,6 13,8 15,3 89,0 4,9 204 - 3,6 372 1.007,7
13:07 15,5 13,7 15,2 89,0 5,1 210 - 3,6 415 1.007,7
13:06 15,5 13,6 15,1 89,0 5,9 230 9,8 3,6 238 1.007,7
13:05 15,4 13,6 15,1 89,0 5,9 228 - 3,6 229 1.007,7
13:04 15,4 13,5 15,0 89,0 4,9 217 - 3,6 229 1.007,7
13:03 15,3 13,5 15,0 89,0 4,9 201 - 3,6 203 1.007,7
13:02 15,3 13,5 14,9 89,0 5,1 206 - 3,6 176 1.007,7
13:01 15,2 13,4 14,9 89,0 4,8 203 - 3,6 137 1.007,6
13:00 15,2 13,4 14,9 89,0 4,1 211 - 3,6 107 1.007,6
 
12:59 15,2 13,3 14,8 88,2 3,9 200 - 3,6 107 1.007,6
12:58 15,2 13,2 14,8 88,0 4,2 217 - 3,6 108 1.007,5
12:57 15,2 13,2 14,7 88,0 4,4 225 - 3,6 110 1.007,5
12:56 15,2 13,2 14,7 88,0 4,4 236 - 3,6 108 1.007,5
12:55 15,2 13,2 14,7 88,0 4,8 176 - 3,6 96 1.007,6
12:54 15,1 13,1 14,7 88,0 5,2 179 - 3,6 81 1.007,6
12:53 15,1 13,1 14,7 88,0 5,0 217 - 3,6 73 1.007,6
12:52 15,1 13,1 14,6 88,0 5,5 236 - 3,6 73 1.007,7
12:51 15,1 13,1 14,6 88,0 6,2 234 9,4 3,6 76 1.007,7
12:50 15,1 13,1 14,6 88,0 6,6 221 9,8 3,6 78 1.007,7
12:49 15,1 13,1 14,6 88,0 6,6 216 - 3,6 79 1.007,7
12:48 15,1 13,1 14,6 88,0 5,6 207 10,7 3,6 79 1.007,7
12:47 15,0 13,1 14,6 88,0 4,9 259 - 3,6 78 1.007,7
12:46 15,1 13,1 14,6 88,0 4,7 195 - 3,6 76 1.007,7
12:45 15,1 13,1 14,6 88,0 5,6 198 - 3,6 79 1.007,6
12:44 15,1 13,1 14,6 88,0 5,6 190 10,3 3,6 83 1.007,6
12:43 15,1 13,0 14,6 87,4 5,6 198 - 3,6 79 1.007,6
12:42 15,2 13,0 14,6 87,0 5,8 212 - 3,6 73 1.007,6
12:41 15,2 13,1 14,6 87,0 6,0 176 - 3,6 66 1.007,6
12:40 15,3 13,2 14,8 87,0 6,2 214 - 3,6 59 1.007,6
12:39 15,4 13,3 14,9 87,0 6,9 215 - 3,6 50 1.007,6
12:38 15,5 13,4 14,9 87,0 8,7 205 12,1 3,4 41 1.007,6
12:37 15,6 13,4 15,0 87,0 10,9 209 14,8 3,2 37 1.007,6
12:36 15,6 13,4 15,0 87,0 12,8 209 16,1 3,2 35 1.007,4
12:35 15,6 13,4 15,0 87,0 13,8 217 17,0 3,2 35 1.007,2
12:34 15,5 13,2 14,8 85,8 13,4 217 - 3,2 35 1.007,2
12:33 15,6 13,1 14,8 85,4 13,4 257 16,5 3,2 39 1.007,0
12:32 15,7 13,4 15,0 86,0 13,9 259 17,0 3,2 49 1.006,9
12:31 15,8 13,5 15,1 86,0 13,5 238 - 3,0 72 1.006,9
12:30 15,9 13,5 15,2 86,0 13,2 258 - 3,0 89 1.006,9
12:29 15,9 13,4 15,1 85,1 13,2 255 - 3,0 90 1.006,7
12:28 16,1 13,5 15,2 84,8 14,5 219 - 3,0 88 1.006,4
12:27 16,3 13,5 15,3 83,5 15,2 233 18,8 3,0 85 1.006,4
12:26 16,6 13,7 15,5 82,5 15,0 263 18,8 3,0 59 1.006,7
12:25 16,8 13,5 15,4 80,7 15,1 213 19,2 3,0 35 1.006,7
12:24 17,0 13,6 15,6 80,0 15,7 227 19,2 3,0 31 1.006,8
12:23 17,2 13,6 15,6 79,1 13,5 222 - 3,0 37 1.006,9
12:22 17,4 13,8 15,9 79,0 12,5 278 17,0 3,0 53 1.006,8
12:21 17,8 14,2 16,3 79,4 12,6 257 - 3,0 74 1.006,7
12:20 18,0 14,5 16,5 79,5 11,9 224 16,1 3,0 83 1.006,9
12:19 18,1 14,3 16,5 78,3 10,7 244 13,9 3,0 78 1.007,0
12:18 18,3 14,4 16,6 78,0 10,0 247 - 3,0 87 1.007,1
12:17 18,5 14,6 16,7 77,9 9,4 244 - 3,0 88 1.007,1
12:16 18,6 14,6 16,8 77,0 8,0 251 - 3,0 88 1.007,2
12:15 18,7 14,6 16,8 77,0 6,9 214 10,3 3,0 86 1.007,2
12:14 18,7 14,6 16,8 76,5 6,2 232 9,4 3,0 64 1.007,1
12:13 18,8 14,5 16,8 76,0 6,1 238 - 3,0 78 1.007,0
12:12 18,8 14,5 16,8 76,0 7,1 255 12,1 3,0 116 1.007,0
12:11 18,8 14,6 16,8 76,0 7,5 227 12,1 3,0 198 1.007,0
12:10 18,8 14,6 16,8 76,0 7,1 201 10,3 3,0 262 1.007,0
12:09 18,8 14,6 16,8 76,0 6,9 183 - 3,0 262 1.007,0
12:08 18,8 14,6 16,8 76,0 7,2 219 10,3 3,0 319 1.006,9
12:07 18,8 14,7 16,9 76,8 7,5 244 11,6 3,0 763 1.007,1
12:06 18,8 14,8 17,0 77,0 7,0 204 10,7 3,0 763 1.007,1
12:05 18,8 14,8 17,0 77,0 6,5 225 10,3 3,0 527 1.007,0
12:04 18,8 14,8 17,0 77,0 6,1 215 9,8 3,0 290 1.007,0
12:03 18,8 14,8 17,0 77,0 5,8 201 - 3,0 311 1.007,0
12:02 18,8 14,8 17,0 77,0 6,3 210 - 3,0 293 1.007,0
12:01 18,8 14,7 16,9 77,0 6,6 205 9,8 3,0 269 1.007,0
12:00 18,8 14,7 16,9 77,0 6,4 205 - 3,0 443 1.007,0
 
11:59 18,7 14,7 16,9 77,0 6,0 215 - 3,0 708 1.006,9
11:58 18,7 14,7 16,9 77,0 5,9 195 - 3,0 708 1.007,0
11:57 18,7 14,6 16,8 77,0 7,0 179 - 3,0 707 1.007,1
11:56 18,7 14,6 16,8 77,0 8,0 186 11,2 3,0 685 1.007,1
11:55 18,7 14,6 16,8 77,0 8,6 213 - 3,0 667 1.007,2
11:54 18,7 14,8 16,9 78,0 9,0 194 12,1 3,0 648 1.007,2
11:53 18,7 15,0 17,1 79,0 8,9 209 14,8 3,0 677 1.007,1
11:52 18,7 15,1 17,1 79,4 8,2 214 11,6 3,0 697 1.007,2
11:51 18,6 15,1 17,2 80,0 6,8 228 11,6 3,0 703 1.007,2
11:50 18,6 15,1 17,1 80,0 6,0 199 - 3,0 704 1.007,1
11:49 18,5 15,0 17,1 80,0 5,2 220 - 3,0 569 1.007,1
11:48 18,4 15,0 17,0 80,0 5,5 194 - 3,0 197 1.007,1
11:47 18,4 14,9 17,0 80,0 5,7 226 - 3,0 197 1.007,1
11:46 18,3 14,9 16,9 80,0 2,7 223 9,4 3,0 217 1.007,1
11:45 18,3 14,8 16,9 80,0 1,1 75 9,4 3,0 225 1.007,1
11:44 18,3 14,8 16,8 80,0 3,6 255 11,6 3,0 225 1.007,1
11:43 18,3 14,8 16,8 80,0 7,4 199 - 3,0 225 1.007,0
11:42 18,3 15,0 17,0 81,0 7,4 182 11,6 3,0 225 1.007,0
11:41 18,2 14,9 16,9 81,0 6,1 231 10,7 3,0 228 1.007,1
11:40 18,2 14,9 16,9 81,0 5,9 249 9,8 3,0 230 1.007,2
11:39 18,2 14,9 16,9 81,0 5,8 211 - 3,0 230 1.007,0
11:38 18,2 14,9 16,9 81,0 6,5 203 - 3,0 223 1.007,0
11:37 18,2 14,9 16,9 81,0 6,8 211 - 3,0 195 1.007,1
11:36 18,1 14,9 16,9 81,0 6,1 228 11,2 3,0 179 1.007,0
11:35 18,1 14,8 16,8 81,0 5,8 165 - 3,0 152 1.007,0
11:34 18,1 14,8 16,8 81,0 5,4 196 - 3,0 153 1.007,0
11:33 18,0 14,7 16,7 81,0 5,3 236 9,4 3,0 183 1.007,0
11:32 17,9 14,7 16,6 81,0 5,6 198 9,4 3,0 186 1.007,0
11:31 17,9 14,8 16,7 81,9 6,4 181 10,3 3,0 186 1.007,0
11:30 17,9 14,8 16,7 82,0 7,0 234 13,0 3,0 183 1.006,9
11:29 17,9 14,8 16,7 82,0 6,5 261 12,5 3,0 206 1.007,0
11:28 17,8 14,7 16,7 82,0 5,8 170 9,4 3,0 154 1.006,9
11:27 17,8 14,8 16,7 82,6 6,3 207 10,3 3,0 137 1.006,9
11:26 17,7 14,8 16,7 83,0 5,8 195 10,3 3,0 137 1.007,0
11:25 17,7 14,8 16,7 83,0 6,3 228 - 3,0 137 1.006,9
11:24 17,7 14,8 16,7 83,0 7,4 229 12,1 3,0 137 1.007,0
11:23 17,7 14,8 16,7 83,3 7,7 197 10,7 3,0 137 1.007,0
11:22 17,7 14,9 16,8 84,0 7,3 213 11,2 3,0 137 1.006,9
11:21 17,7 14,9 16,8 84,0 6,9 208 - 3,0 137 1.006,8
11:20 17,7 14,9 16,8 84,0 6,5 232 9,8 3,0 137 1.006,8
11:19 17,7 15,0 16,8 84,1 5,7 211 11,2 3,0 137 1.006,9
11:18 17,7 15,1 16,9 84,6 5,0 187 - 3,0 137 1.007,0
11:17 17,7 15,0 16,8 84,0 4,7 179 - 3,0 140 1.007,0
11:16 17,7 15,0 16,8 84,0 5,3 207 - 3,0 141 1.007,0
11:15 17,8 15,0 16,9 84,0 5,9 214 - 3,0 140 1.007,0
11:14 17,8 15,1 16,9 84,0 6,3 236 - 3,0 162 1.006,9
11:13 17,8 15,3 17,1 84,9 5,6 218 10,3 3,0 203 1.007,0
11:12 17,8 15,3 17,1 85,0 4,2 265 - 3,0 180 1.007,0
11:11 17,8 15,3 17,1 85,0 3,2 193 - 3,0 124 1.007,0
11:10 17,9 15,3 17,1 85,0 3,7 200 - 3,0 80 1.006,7
11:09 17,8 15,3 17,1 85,0 3,5 203 - 3,0 59 1.006,7
11:08 17,8 15,1 17,0 84,2 3,1 192 - 2,8 80 1.006,8
11:07 17,8 15,2 17,1 85,0 3,3 192 - 2,8 121 1.006,8
11:06 17,8 15,2 17,0 85,0 3,5 176 - 2,8 150 1.006,9
11:05 17,8 15,2 17,0 85,0 3,2 194 - 2,8 174 1.006,9
11:04 17,7 15,1 16,9 84,5 3,0 206 - 2,8 215 1.006,8
11:03 17,7 15,0 16,8 84,0 3,7 185 - 2,8 218 1.006,8
11:02 17,7 14,9 16,8 84,0 4,3 199 - 2,8 231 1.006,9
11:01 17,7 15,0 16,8 84,2 4,6 189 - 2,8 236 1.006,8
11:00 17,6 15,1 16,9 85,0 5,3 207 9,4 2,8 233 1.006,8
 
10:59 17,7 15,1 16,9 85,0 6,3 232 - 2,8 228 1.006,8
10:58 17,7 15,1 16,9 85,0 5,6 207 - 2,8 207 1.006,8
10:57 17,7 15,1 16,9 85,0 3,6 183 - 2,8 188 1.006,8
10:56 17,7 15,1 16,9 85,0 2,9 97 - 2,8 172 1.006,8
10:55 17,6 15,1 16,9 85,0 3,2 192 - 2,8 161 1.006,9
10:54 17,6 15,1 16,8 85,0 4,3 197 - 2,8 158 1.006,9
10:53 17,6 15,0 16,8 85,0 4,2 195 - 2,8 159 1.006,9
10:52 17,6 15,1 16,9 85,6 4,3 186 - 2,8 184 1.006,9
10:51 17,5 15,2 16,9 86,0 4,0 197 - 2,8 205 1.006,9
10:50 17,5 15,1 16,9 86,0 3,4 209 - 2,8 190 1.007,0
10:49 17,5 15,1 16,9 86,0 3,3 182 - 2,8 168 1.007,0
10:48 17,4 15,1 16,8 86,0 3,8 220 - 2,8 164 1.007,1
10:47 17,4 15,1 16,8 86,0 3,6 203 - 2,8 189 1.007,1
10:46 17,4 15,1 16,8 86,0 3,9 153 - 2,8 198 1.007,0
10:45 17,4 15,1 16,8 86,0 4,7 180 - 2,8 192 1.007,0
10:44 17,4 15,0 16,8 86,0 4,6 176 - 2,8 195 1.007,0
10:43 17,4 15,2 16,9 87,0 3,7 209 - 2,8 164 1.006,9
10:42 17,4 15,2 16,9 87,0 3,4 156 - 2,8 173 1.006,9
10:41 17,4 15,2 16,9 87,0 3,3 220 - 2,8 179 1.007,0
10:40 17,3 15,1 16,8 87,0 3,5 210 - 2,8 161 1.007,0
10:39 17,3 15,1 16,8 87,0 4,0 192 - 2,8 146 1.007,0
10:38 17,3 15,1 16,8 87,0 4,6 216 - 2,8 166 1.007,0
10:37 17,3 15,1 16,8 87,2 5,2 176 - 2,8 208 1.007,0
10:36 17,3 15,2 16,9 88,0 5,6 185 - 2,8 204 1.007,1
10:35 17,2 15,2 16,9 88,0 5,7 211 9,4 2,8 213 1.007,2
10:34 17,2 15,2 16,8 88,0 5,5 188 - 2,8 195 1.007,1
10:33 17,2 15,2 16,8 88,0 5,9 226 - 2,8 199 1.007,0
10:32 17,2 15,3 16,9 88,9 6,3 192 10,3 2,8 239 1.007,1
10:31 17,1 15,3 16,9 89,0 6,3 224 - 2,8 243 1.007,1
10:30 17,1 15,3 16,9 89,0 5,3 171 10,7 2,8 245 1.007,0
10:29 17,1 15,3 16,8 89,0 4,9 133 10,7 2,8 255 1.007,0
10:28 17,0 15,2 16,8 89,0 3,5 189 - 2,8 253 1.007,1
10:27 17,0 15,2 16,8 89,0 4,1 199 - 2,8 240 1.007,1
10:26 17,0 15,3 16,9 90,0 4,7 194 9,8 2,8 226 1.007,2
10:25 17,0 15,3 16,8 90,0 5,2 174 - 2,8 221 1.007,2
10:24 16,9 15,3 16,8 90,0 3,5 177 - 2,8 230 1.007,2
10:23 16,9 15,3 16,8 90,0 3,7 282 9,4 2,8 190 1.007,1
10:22 16,9 15,3 16,8 90,0 4,5 195 - 2,8 179 1.007,1
10:21 16,9 15,2 16,8 90,0 4,1 239 - 2,8 209 1.007,1
10:20 16,9 15,2 16,8 90,0 3,5 143 - 2,8 198 1.007,1
10:19 16,8 15,2 16,7 90,0 4,8 141 - 2,8 214 1.007,1
10:18 16,8 15,2 16,7 90,0 4,5 152 - 2,8 222 1.007,1
10:17 16,8 15,2 16,7 90,0 3,8 193 - 2,8 222 1.007,1
10:16 16,8 15,1 16,7 90,0 3,3 196 - 2,8 195 1.007,0
10:15 16,8 15,1 16,6 90,0 3,6 209 - 2,8 162 1.007,1
10:14 16,8 15,1 16,7 90,0 4,4 188 - 2,8 151 1.007,1
10:13 16,8 15,1 16,7 90,0 4,6 184 - 2,8 159 1.007,1
10:12 16,8 15,2 16,7 90,0 4,5 232 - 2,8 161 1.007,1
10:11 16,8 15,2 16,7 90,6 4,0 185 - 2,8 122 1.007,1
10:10 16,8 15,3 16,8 91,0 2,7 248 - 2,8 147 1.007,1
10:09 16,8 15,3 16,8 91,0 1,5 126 - 2,8 149 1.007,1
10:08 16,8 15,3 16,8 91,0 1,6 255 - 2,8 133 1.007,1
10:07 16,7 15,3 16,7 91,0 2,2 230 - 2,8 121 1.007,1
10:06 16,7 15,2 16,7 91,0 2,7 157 - 2,8 128 1.007,0
10:05 16,8 15,3 16,7 91,0 3,6 194 - 2,8 153 1.007,0
10:04 16,7 15,2 16,7 91,0 4,1 211 - 2,8 142 1.007,0
10:03 16,7 15,2 16,7 91,0 3,5 201 - 2,8 115 1.007,0
10:02 16,7 15,2 16,7 91,0 3,0 196 - 2,8 104 1.007,0
10:01 16,7 15,2 16,7 91,0 3,1 220 - 2,8 106 1.007,1
10:00 16,7 15,3 16,7 91,0 3,2 208 - 2,8 134 1.007,1
 
09:59 16,7 15,2 16,7 91,0 2,9 151 - 2,8 160 1.007,1
09:58 16,7 15,2 16,7 91,0 2,6 257 - 2,8 143 1.007,1
09:57 16,7 15,2 16,7 91,0 3,3 182 - 2,8 146 1.007,1
09:56 16,7 15,2 16,7 91,0 4,0 220 - 2,8 123 1.007,1
09:55 16,7 15,2 16,7 91,0 4,3 224 - 2,8 153 1.007,1
09:54 16,8 15,3 16,8 91,0 3,7 198 - 2,8 164 1.007,0
09:53 16,7 15,2 16,7 91,0 3,6 191 - 2,8 141 1.007,0
09:52 16,8 15,3 16,7 91,0 3,1 176 - 2,8 132 1.007,0
09:51 16,7 15,3 16,7 91,0 2,7 231 - 2,8 83 1.006,9
09:50 16,7 15,2 16,7 91,0 2,8 225 - 2,8 70 1.006,9
09:49 16,7 15,2 16,7 91,0 3,1 216 - 2,8 76 1.007,0
09:48 16,7 15,2 16,7 91,0 2,9 209 - 2,8 85 1.006,9
09:47 16,7 15,2 16,7 91,0 2,7 176 - 2,8 88 1.006,9
09:46 16,7 15,2 16,7 91,0 2,8 182 - 2,8 105 1.006,9
09:45 16,7 15,2 16,7 91,0 3,0 190 - 2,8 96 1.006,9
09:44 16,7 15,2 16,7 91,0 2,9 162 - 2,8 110 1.006,9
09:43 16,7 15,2 16,7 91,0 2,5 209 - 2,8 115 1.006,9
09:42 16,7 15,2 16,7 91,0 2,7 136 - 2,8 114 1.006,9
09:41 16,8 15,3 16,7 91,0 3,0 186 - 2,8 87 1.006,8
09:40 16,7 15,2 16,7 91,0 3,0 182 - 2,8 81 1.006,8
09:39 16,7 15,2 16,7 91,0 3,0 232 - 2,8 83 1.006,7
09:38 16,7 15,2 16,7 91,0 2,3 222 - 2,8 99 1.006,6
09:37 16,7 15,2 16,7 91,0 1,8 140 - 2,8 112 1.006,6
09:36 16,7 15,2 16,7 91,0 2,0 113 - 2,8 116 1.006,6
09:35 16,7 15,2 16,7 91,0 2,3 183 - 2,8 125 1.006,6
09:34 16,7 15,2 16,7 91,0 2,4 167 - 2,8 130 1.006,6
09:33 16,6 15,1 16,6 91,0 2,0 100 - 2,8 134 1.006,7
09:32 16,6 15,1 16,6 91,0 1,6 113 - 2,8 133 1.006,6
09:31 16,6 15,1 16,6 91,0 1,9 178 - 2,8 131 1.006,5
09:30 16,6 15,1 16,6 91,0 2,2 157 - 2,8 127 1.006,5
09:29 16,6 15,1 16,6 91,0 2,1 224 - 2,8 120 1.006,6
09:28 16,6 14,9 16,4 90,2 1,9 162 - 2,8 114 1.006,6
09:27 16,6 14,9 16,4 90,0 1,7 201 - 2,8 108 1.006,5
09:26 16,6 14,9 16,4 90,0 1,8 151 - 2,8 102 1.006,5
09:25 16,6 14,9 16,4 90,0 2,0 155 - 2,8 95 1.006,7
09:24 16,6 14,9 16,4 90,0 1,3 160 - 2,8 93 1.006,8
09:23 16,5 14,9 16,4 90,0 0,7 43 - 2,8 85 1.006,9
09:22 16,6 14,9 16,4 90,0 0,9 197 - 2,8 83 1.006,9
09:21 16,6 14,9 16,4 90,0 2,1 182 - 2,8 82 1.007,0
09:20 16,6 14,9 16,4 90,0 2,1 219 - 2,8 80 1.007,0
09:19 16,6 14,9 16,4 90,0 2,3 247 - 2,8 81 1.006,9
09:18 16,6 14,9 16,4 90,0 2,3 192 - 2,8 84 1.006,9
09:17 16,6 14,9 16,4 90,0 2,7 164 - 2,8 91 1.007,0
09:16 16,6 14,9 16,5 90,0 2,7 213 - 2,8 96 1.007,1
09:15 16,6 14,9 16,5 90,0 2,8 211 - 2,8 99 1.007,1
09:14 16,6 14,9 16,5 90,0 2,9 170 - 2,8 105 1.007,1
09:13 16,6 14,9 16,5 90,0 2,9 159 - 2,8 105 1.007,2
09:12 16,6 14,9 16,5 90,0 2,4 180 - 2,8 97 1.007,2
09:11 16,6 14,9 16,5 90,0 2,0 147 - 2,8 95 1.007,2
09:10 16,6 14,9 16,5 90,0 1,9 151 - 2,8 86 1.007,3
09:09 16,6 14,9 16,5 90,0 2,2 222 - 2,8 78 1.007,3
09:08 16,6 15,0 16,5 90,0 2,6 165 - 2,8 77 1.007,3
09:07 16,6 15,0 16,5 90,0 2,5 205 - 2,8 77 1.007,4
09:06 16,6 15,0 16,5 90,0 2,7 225 - 2,8 71 1.007,3
09:05 16,6 15,0 16,5 90,0 3,1 208 - 2,8 64 1.007,4
09:04 16,7 15,0 16,5 90,0 3,5 209 - 2,8 72 1.007,4
09:03 16,7 15,0 16,5 90,0 3,4 179 - 2,8 71 1.007,4
09:02 16,7 15,0 16,5 90,0 3,3 187 - 2,8 66 1.007,4
09:01 16,7 15,0 16,6 90,0 3,4 201 - 2,8 63 1.007,3
09:00 16,7 15,0 16,6 90,0 3,5 201 - 2,8 62 1.007,3
 
08:59 16,7 14,9 16,5 89,2 3,4 197 - 2,8 59 1.007,3
08:58 16,7 14,9 16,5 89,0 3,4 180 - 2,8 56 1.007,4
08:57 16,8 14,9 16,5 89,0 3,3 203 - 2,8 50 1.007,4
08:56 16,8 15,0 16,5 89,0 2,6 124 - 2,6 42 1.007,4
08:55 16,8 14,9 16,5 89,0 1,5 249 - 2,6 35 1.007,4
08:54 16,8 15,0 16,6 89,0 1,5 91 - 2,6 29 1.007,4
08:53 16,8 15,0 16,6 89,0 2,5 170 - 2,6 25 1.007,4
08:52 16,8 15,0 16,6 89,0 3,3 205 - 2,4 22 1.007,4
08:51 16,9 15,0 16,6 89,0 3,7 156 - 2,4 20 1.007,4
08:50 16,9 15,0 16,6 89,0 3,8 179 - 2,2 18 1.007,4
08:49 16,9 15,1 16,6 89,0 3,7 242 - 2,2 18 1.007,4
08:48 16,9 15,1 16,6 89,0 3,2 168 - 2,2 19 1.007,4
08:47 16,9 15,1 16,7 89,0 3,2 178 - 2,0 20 1.007,4
08:46 16,9 15,1 16,7 89,0 3,4 168 - 2,0 23 1.007,5
08:45 16,9 15,1 16,6 89,0 3,6 201 - 2,0 28 1.007,5
08:44 16,9 15,1 16,6 89,0 3,7 215 - 1,8 33 1.007,5
08:43 16,9 15,1 16,6 89,0 4,4 190 - 1,6 35 1.007,4
08:42 16,9 15,1 16,6 89,0 5,0 209 9,4 1,6 40 1.007,5
08:41 16,9 15,1 16,7 89,0 5,0 211 - 1,6 42 1.007,5
08:40 16,9 15,1 16,6 89,0 4,8 217 - 1,6 45 1.007,5
08:39 16,9 15,1 16,6 89,0 5,1 207 - 1,6 62 1.007,5
08:38 16,9 15,0 16,6 89,0 5,3 190 - 1,6 113 1.007,5
08:37 16,8 15,1 16,7 89,6 5,0 194 - 1,6 173 1.007,5
08:36 16,8 15,2 16,7 90,0 4,7 205 - 1,6 174 1.007,5
08:35 16,8 15,2 16,7 90,0 4,3 194 - 1,6 160 1.007,4
08:34 16,8 15,2 16,7 90,0 3,9 198 - 1,6 145 1.007,4
08:33 16,8 15,1 16,7 90,0 3,8 242 - 1,6 138 1.007,4
08:32 16,8 15,1 16,6 90,0 4,4 209 - 1,6 134 1.007,4
08:31 16,8 15,1 16,6 90,0 4,6 215 - 1,6 126 1.007,4
08:30 16,8 15,1 16,6 90,0 4,9 213 - 1,6 121 1.007,4
08:29 16,8 15,1 16,6 90,0 4,9 198 - 1,6 107 1.007,4
08:28 16,8 15,1 16,6 90,0 5,1 165 - 1,6 111 1.007,3
08:27 16,8 15,1 16,6 90,0 4,5 170 - 1,6 122 1.007,4
08:26 16,8 15,1 16,6 90,0 3,5 122 - 1,6 132 1.007,4
08:25 16,8 15,1 16,6 90,0 3,3 213 - 1,6 147 1.007,3
08:24 16,7 15,1 16,6 90,0 3,8 198 - 1,6 175 1.007,3
08:23 16,7 15,1 16,6 90,3 3,2 236 - 1,6 193 1.007,3
08:22 16,7 15,2 16,7 91,0 3,6 159 - 1,6 154 1.007,3
08:21 16,7 15,1 16,6 90,6 3,9 209 - 1,6 157 1.007,3
08:20 16,6 15,1 16,6 90,5 3,9 210 - 1,6 237 1.007,3
08:19 16,6 15,0 16,5 90,3 3,5 213 - 1,6 243 1.007,3
08:18 16,6 14,9 16,4 90,0 4,0 196 - 1,6 235 1.007,3
08:17 16,6 15,0 16,5 90,7 4,0 207 - 1,6 193 1.007,2
08:16 16,5 14,9 16,4 90,0 3,4 195 - 1,6 188 1.007,2
08:15 16,5 14,9 16,4 90,4 3,3 182 - 1,6 203 1.007,2
08:14 16,5 15,0 16,5 91,0 3,6 186 - 1,6 196 1.007,2
08:13 16,5 15,0 16,5 91,0 3,6 195 - 1,6 185 1.007,2
08:12 16,5 15,0 16,4 91,0 3,2 178 - 1,6 179 1.007,2
08:11 16,4 15,0 16,4 91,0 2,9 194 - 1,6 168 1.007,2
08:10 16,4 14,9 16,4 91,0 2,7 181 - 1,6 134 1.007,2
08:09 16,4 14,9 16,4 91,0 2,7 186 - 1,6 116 1.007,2
08:08 16,4 14,9 16,4 91,0 2,7 214 - 1,6 142 1.007,1
08:07 16,4 14,9 16,3 91,0 2,2 161 - 1,6 138 1.007,1
08:06 16,4 14,9 16,4 91,0 1,8 255 - 1,6 132 1.007,0
08:05 16,4 14,9 16,3 91,0 1,8 145 - 1,6 126 1.007,0
08:04 16,3 14,8 16,3 91,0 2,4 207 - 1,6 122 1.007,0
08:03 16,3 14,8 16,3 91,0 2,5 184 - 1,6 117 1.007,0
08:02 16,3 14,8 16,3 91,0 2,3 169 - 1,6 113 1.007,1
08:01 16,3 14,8 16,3 91,0 2,3 209 - 1,6 106 1.007,1
08:00 16,3 14,8 16,3 91,0 2,4 181 - 1,6 102 1.007,0
 
07:59 16,3 14,8 16,3 91,0 2,4 200 - 1,6 99 1.006,9
07:58 16,3 14,8 16,3 91,0 2,4 186 - 1,6 96 1.007,0
07:57 16,3 14,8 16,3 91,0 2,3 203 - 1,6 92 1.006,9
07:56 16,3 14,8 16,2 91,0 2,1 192 - 1,6 86 1.006,9
07:55 16,3 14,8 16,2 91,0 2,1 200 - 1,6 83 1.006,9
07:54 16,3 14,8 16,2 91,0 2,3 199 - 1,6 79 1.006,8
07:53 16,3 14,8 16,2 91,0 2,0 203 - 1,6 78 1.006,8
07:52 16,3 14,8 16,2 91,0 1,9 285 - 1,6 75 1.006,8
07:51 16,2 14,8 16,2 91,0 0,8 193 - 1,6 72 1.006,9
07:50 16,2 14,7 16,2 91,0 1,3 88 - 1,6 69 1.006,9
07:49 16,2 14,7 16,2 91,0 1,0 207 - 1,6 66 1.006,9
07:48 16,2 14,7 16,2 91,0 0,8 63 - 1,6 64 1.006,9
07:47 16,2 14,7 16,2 91,0 0,6 204 - 1,6 62 1.006,9
07:46 16,2 14,7 16,2 91,0 2,0 261 - 1,6 61 1.006,9
07:45 16,2 14,7 16,2 91,0 2,2 190 - 1,6 58 1.006,9
07:44 16,2 14,7 16,2 91,0 2,6 180 - 1,6 56 1.006,9
07:43 16,2 14,7 16,2 91,0 2,4 214 - 1,6 54 1.006,9
07:42 16,2 14,7 16,2 91,0 2,5 194 - 1,6 52 1.006,9
07:41 16,2 14,7 16,2 91,0 2,3 199 - 1,6 51 1.006,9
07:40 16,2 14,7 16,1 91,0 2,1 150 - 1,6 50 1.006,9
07:39 16,2 14,7 16,1 91,0 1,9 168 - 1,6 49 1.006,9
07:38 16,2 14,7 16,1 91,0 2,1 225 - 1,6 47 1.006,9
07:37 16,2 14,7 16,1 91,0 1,9 181 - 1,6 45 1.007,0
07:36 16,2 14,7 16,1 91,0 1,8 168 - 1,6 44 1.007,1
07:35 16,2 14,7 16,1 91,0 1,4 165 - 1,6 43 1.007,0
07:34 16,2 14,7 16,1 91,0 1,1 92 - 1,6 40 1.007,0
07:33 16,2 14,7 16,1 91,0 1,3 26 - 1,6 39 1.007,0
07:32 16,2 14,7 16,1 91,0 1,0 107 - 1,6 39 1.007,0
07:31 16,2 14,7 16,1 91,0 1,9 195 - 1,6 34 1.007,0
07:30 16,2 14,7 16,1 91,0 1,9 227 - 1,6 28 1.007,0
07:29 16,1 14,7 16,1 91,0 1,3 132 - 1,6 28 1.006,9
07:28 16,1 14,7 16,1 91,0 1,6 213 - 1,6 28 1.006,9
07:27 16,1 14,7 16,1 91,0 2,0 193 - 1,6 28 1.007,0
07:26 16,1 14,6 16,1 91,0 0,8 230 - 1,6 28 1.007,0
07:25 16,1 14,6 16,0 91,0 0,5 56 - 1,6 27 1.007,0
07:24 16,1 14,6 16,1 91,0 0,4 172 - 1,6 25 1.007,0
07:23 16,1 14,6 16,1 91,0 1,6 257 - 1,6 23 1.007,0
07:22 16,1 14,6 16,1 91,0 1,9 188 - 1,6 22 1.006,9
07:21 16,1 14,6 16,0 91,0 2,2 178 - 1,6 21 1.006,9
07:20 16,1 14,6 16,0 91,0 2,0 160 - 1,6 19 1.006,9
07:19 16,1 14,6 16,0 91,0 2,0 192 - 1,6 19 1.006,9
07:18 16,1 14,6 16,0 91,0 1,4 182 - 1,6 18 1.006,8
07:17 16,1 14,6 16,0 91,0 0,5 72 - 1,6 18 1.006,8
07:16 16,1 14,6 16,0 91,0 0,4 292 - 1,6 16 1.006,8
07:15 16,1 14,6 16,0 91,0 0,5 122 - 1,6 16 1.006,9
07:14 16,1 14,6 16,0 91,0 1,0 209 - 1,6 16 1.006,9
07:13 16,1 14,6 16,0 91,0 1,0 129 - 1,6 16 1.006,9
07:12 16,1 14,6 16,0 91,0 1,4 91 - 1,6 16 1.006,9
07:11 16,1 14,6 16,0 91,0 1,4 144 - 1,6 16 1.006,9
07:10 16,1 14,6 16,0 91,0 1,6 198 - 1,6 16 1.006,9
07:09 16,1 14,6 16,0 91,0 1,6 169 - 1,6 14 1.007,0
07:08 16,1 14,6 16,0 91,0 1,8 198 - 1,6 14 1.007,0
07:07 16,1 14,6 16,0 91,0 1,8 195 - 1,6 13 1.007,0
07:06 16,1 14,6 16,0 91,0 1,6 197 - 1,6 12 1.007,0
07:05 16,1 14,6 16,0 91,0 1,2 204 - 1,6 11 1.007,0
07:04 16,1 14,6 16,0 91,0 1,5 116 - 1,6 11 1.007,0
07:03 16,1 14,6 16,0 91,0 1,5 191 - 1,6 11 1.007,0
07:02 16,1 14,6 16,0 91,0 0,9 169 - 1,6 11 1.007,0
07:01 16,1 14,6 16,0 91,0 0,6 55 - 1,6 10 1.006,9
07:00 16,1 14,6 16,0 91,0 1,0 213 - 1,6 9 1.007,0
 
06:59 16,1 14,6 16,0 91,0 2,1 247 - 1,6 9 1.006,9
06:58 16,1 14,6 16,0 91,0 1,6 213 - 1,6 9 1.006,9
06:57 16,1 14,6 16,0 91,0 1,5 183 - 1,6 7 1.006,9
06:56 16,1 14,6 16,0 91,0 1,5 170 - 1,6 6 1.006,9
06:55 16,1 14,6 16,0 91,0 1,3 202 - 1,6 5 1.006,9
06:54 16,1 14,6 16,0 91,0 1,6 143 - 1,6 5 1.007,0
06:53 16,1 14,6 16,0 91,0 1,9 165 - 1,6 5 1.007,0
06:52 16,1 14,6 16,0 91,0 2,0 214 - 1,6 5 1.006,9
06:51 16,1 14,6 16,0 91,0 1,1 210 - 1,6 0 1.006,9
06:50 16,1 14,6 16,0 91,0 1,2 82 - 1,6 0 1.006,9
06:49 16,1 14,6 16,0 91,0 1,5 150 - 1,6 0 1.006,9
06:48 16,1 14,6 16,0 91,0 1,6 174 - 1,6 0 1.006,9
06:47 16,1 14,6 16,0 91,0 1,9 229 - 1,6 0 1.006,9
06:46 16,1 14,6 16,0 91,0 2,0 178 - 1,6 0 1.006,9
06:45 16,1 14,6 16,0 91,0 2,1 196 - 1,6 0 1.006,9
06:44 16,1 14,6 16,0 91,0 1,8 174 - 1,6 0 1.006,9
06:43 16,1 14,6 16,0 91,0 1,8 247 - 1,6 0 1.006,9
06:42 16,1 14,6 16,0 91,0 1,6 170 - 1,6 0 1.006,9
06:41 16,1 14,6 16,0 91,0 1,6 201 - 1,6 0 1.006,9
06:40 16,1 14,6 16,0 91,0 1,4 130 - 1,6 0 1.006,8
06:39 16,1 14,6 16,0 91,0 1,4 193 - 1,6 0 1.006,8
06:38 16,1 14,6 16,0 91,0 0,9 199 - 1,6 0 1.006,9
06:37 16,1 14,6 16,0 91,0 0,8 74 - 1,6 0 1.006,9
06:36 16,1 14,6 16,0 91,0 1,1 188 - 1,6 0 1.006,8
06:35 16,1 14,6 16,0 91,0 1,6 223 - 1,6 0 1.006,8
06:34 16,1 14,6 16,0 91,0 1,3 196 - 1,6 0 1.006,9
06:33 16,1 14,6 16,0 91,0 1,4 138 - 1,6 0 1.006,8
06:32 16,1 14,6 16,0 91,0 2,0 180 - 1,6 0 1.006,9
06:31 16,1 14,6 16,0 91,0 2,4 167 - 1,6 0 1.006,9
06:30 16,1 14,6 16,1 91,0 2,5 188 - 1,6 0 1.006,9
06:29 16,1 14,6 16,0 91,0 2,2 196 - 1,6 0 1.006,9
06:28 16,1 14,6 16,0 91,0 2,0 204 - 1,6 0 1.006,9
06:27 16,1 14,6 16,1 91,0 1,6 211 - 1,6 0 1.006,8
06:26 16,1 14,6 16,1 91,0 1,4 214 - 1,6 0 1.006,8
06:25 16,1 14,6 16,1 91,0 1,5 212 - 1,6 0 1.006,8
06:24 16,1 14,6 16,0 91,0 1,8 162 - 1,6 0 1.006,8
06:23 16,1 14,6 16,1 91,0 1,9 157 - 1,6 0 1.006,9
06:22 16,1 14,6 16,1 91,0 1,7 211 - 1,6 0 1.006,9
06:21 16,1 14,6 16,1 91,0 1,5 208 - 1,6 0 1.006,8
06:20 16,1 14,6 16,1 91,0 1,1 215 - 1,6 0 1.006,8
06:19 16,1 14,6 16,1 91,0 1,2 150 - 1,6 0 1.006,8
06:18 16,1 14,6 16,1 91,0 1,4 170 - 1,6 0 1.006,8
06:17 16,1 14,6 16,1 91,0 1,4 201 - 1,6 0 1.006,7
06:16 16,1 14,6 16,1 91,0 1,2 234 - 1,6 0 1.006,7
06:15 16,1 14,6 16,1 91,0 0,8 192 - 1,6 0 1.006,8
06:14 16,1 14,6 16,1 91,0 1,0 141 - 1,6 0 1.006,8
06:13 16,1 14,6 16,1 91,0 1,3 202 - 1,6 0 1.006,8
06:12 16,1 14,6 16,1 91,0 1,5 197 - 1,6 0 1.006,8
06:11 16,1 14,6 16,1 91,0 0,9 223 - 1,6 0 1.006,9
06:10 16,1 14,6 16,1 91,0 0,8 83 - 1,6 0 1.006,8
06:09 16,1 14,6 16,1 91,0 1,2 150 - 1,6 0 1.006,9
06:08 16,1 14,6 16,1 91,0 1,6 178 - 1,6 0 1.006,9
06:07 16,1 14,6 16,1 91,0 1,5 196 - 1,6 0 1.006,8
06:06 16,1 14,6 16,1 91,0 1,3 205 - 1,6 0 1.006,9
06:05 16,1 14,6 16,1 91,0 1,3 173 - 1,6 0 1.006,9
06:04 16,1 14,6 16,1 91,0 1,4 191 - 1,6 0 1.006,9
06:03 16,1 14,6 16,1 91,0 1,4 201 - 1,6 0 1.006,9
06:02 16,1 14,6 16,1 91,0 1,5 236 - 1,6 0 1.007,0
06:01 16,1 14,6 16,1 91,0 1,6 177 - 1,6 0 1.007,1
06:00 16,1 14,6 16,0 91,0 1,6 226 - 1,6 0 1.007,1
 
05:59 16,1 14,6 16,0 91,0 1,5 244 - 1,6 0 1.007,1
05:58 16,1 14,6 16,0 91,0 1,3 188 - 1,6 0 1.007,1
05:57 16,1 14,6 16,0 91,0 1,5 267 - 1,6 0 1.007,1
05:56 16,1 14,6 16,0 91,0 2,0 219 - 1,6 0 1.007,1
05:55 16,1 14,6 16,0 91,0 2,4 223 - 1,6 0 1.007,1
05:54 16,0 14,6 16,0 91,0 2,3 207 - 1,6 0 1.007,0
05:53 16,0 14,5 16,0 91,0 2,0 165 - 1,6 0 1.007,0
05:52 16,0 14,5 16,0 91,0 1,8 184 - 1,6 0 1.007,1
05:51 16,0 14,5 15,9 91,0 1,8 190 - 1,6 0 1.007,1
05:50 16,0 14,5 15,9 91,0 1,9 153 - 1,6 0 1.007,1
05:49 16,0 14,5 15,9 91,0 2,1 195 - 1,6 0 1.007,1
05:48 16,0 14,5 15,9 91,0 2,1 176 - 1,6 0 1.007,1
05:47 16,0 14,5 15,9 91,0 2,0 182 - 1,6 0 1.007,2
05:46 16,0 14,5 15,9 91,0 1,7 184 - 1,6 0 1.007,2
05:45 16,0 14,3 15,8 90,1 1,2 234 - 1,6 0 1.007,2
05:44 16,0 14,3 15,8 90,0 0,7 109 - 1,6 0 1.007,2
05:43 16,0 14,3 15,8 90,0 1,0 124 - 1,6 0 1.007,2
05:42 16,0 14,4 15,8 90,5 0,9 145 - 1,6 0 1.007,2
05:41 16,0 14,4 15,8 90,4 1,1 179 - 1,6 0 1.007,3
05:40 16,0 14,3 15,8 90,0 1,1 208 - 1,6 0 1.007,3
05:39 16,0 14,3 15,8 90,0 1,1 130 - 1,6 0 1.007,2
05:38 16,0 14,3 15,8 90,0 1,1 174 - 1,6 0 1.007,2
05:37 16,0 14,3 15,8 90,0 0,9 168 - 1,6 0 1.007,3
05:36 16,0 14,3 15,8 90,0 0,7 102 - 1,6 0 1.007,3
05:35 16,0 14,3 15,8 90,0 0,6 102 - 1,6 0 1.007,2
05:34 16,0 14,3 15,8 90,0 0,5 159 - 1,6 0 1.007,2
05:33 16,0 14,3 15,8 90,0 0,6 187 - 1,6 0 1.007,2
05:32 16,0 14,3 15,8 90,0 0,6 140 - 1,6 0 1.007,2
05:31 16,0 14,3 15,8 90,0 0,5 203 - 1,6 0 1.007,2
05:30 16,0 14,3 15,8 90,0 0,5 132 - 1,6 0 1.007,2
05:29 16,0 14,3 15,8 90,0 0,6 200 - 1,6 0 1.007,2
05:28 16,0 14,3 15,8 90,0 0,6 219 - 1,6 0 1.007,2
05:27 16,0 14,3 15,8 90,0 0,7 119 - 1,6 0 1.007,1
05:26 16,0 14,3 15,8 90,0 0,9 132 - 1,6 0 1.007,1
05:25 16,0 14,3 15,8 90,0 1,0 111 - 1,6 0 1.007,1
05:24 16,0 14,3 15,8 90,0 1,0 77 - 1,6 0 1.007,1
05:23 16,0 14,4 15,8 90,0 1,0 162 - 1,6 0 1.007,1
05:22 16,0 14,3 15,8 90,0 1,3 191 - 1,6 0 1.007,1
05:21 16,0 14,3 15,8 90,0 1,1 161 - 1,6 0 1.007,1
05:20 16,0 14,4 15,8 90,0 1,1 109 - 1,6 0 1.007,1
05:19 16,0 14,4 15,8 90,0 1,1 170 - 1,6 0 1.007,1
05:18 16,0 14,4 15,8 90,0 1,0 128 - 1,6 0 1.007,2
05:17 16,0 14,4 15,9 90,0 1,0 100 - 1,6 0 1.007,2
05:16 16,0 14,4 15,9 90,0 1,0 160 - 1,6 0 1.007,2
05:15 16,0 14,4 15,9 90,0 0,9 140 - 1,6 0 1.007,2
05:14 16,1 14,4 15,9 90,0 0,9 68 - 1,6 0 1.007,2
05:13 16,1 14,4 15,9 90,0 0,9 107 - 1,6 0 1.007,2
05:12 16,1 14,4 15,9 90,0 1,0 128 - 1,6 0 1.007,2
05:11 16,1 14,4 15,9 90,0 1,0 149 - 1,6 0 1.007,3
05:10 16,1 14,4 15,9 90,0 0,8 162 - 1,6 0 1.007,2
05:09 16,1 14,4 15,9 90,0 0,9 76 - 1,6 0 1.007,3
05:08 16,1 14,4 15,9 90,0 1,1 123 - 1,6 0 1.007,3
05:07 16,1 14,4 15,9 90,0 1,2 151 - 1,6 0 1.007,3
05:06 16,1 14,4 15,9 90,0 1,0 149 - 1,6 0 1.007,2
05:05 16,1 14,4 15,9 90,0 0,9 84 - 1,6 0 1.007,2
05:04 16,1 14,4 15,9 90,0 1,1 78 - 1,6 0 1.007,2
05:03 16,1 14,4 15,9 90,0 0,9 99 - 1,6 0 1.007,2
05:02 16,1 14,5 15,9 90,0 0,9 178 - 1,6 0 1.007,2
05:01 16,1 14,5 15,9 90,0 1,0 145 - 1,6 0 1.007,2
05:00 16,1 14,5 15,9 90,0 1,0 174 - 1,6 0 1.007,2
 
04:59 16,1 14,5 16,0 90,0 0,8 109 - 1,6 0 1.007,2
04:58 16,1 14,5 16,0 90,0 0,6 110 - 1,6 0 1.007,2
04:57 16,1 14,5 16,0 90,0 0,7 174 - 1,6 0 1.007,2
04:56 16,1 14,5 15,9 90,0 0,7 125 - 1,6 0 1.007,2
04:55 16,1 14,5 16,0 90,0 0,8 143 - 1,6 0 1.007,3
04:54 16,1 14,5 16,0 90,0 0,9 93 - 1,6 0 1.007,2
04:53 16,1 14,5 16,0 90,0 1,1 148 - 1,6 0 1.007,2
04:52 16,2 14,5 16,0 90,0 1,1 162 - 1,6 0 1.007,3
04:51 16,2 14,5 16,0 90,0 0,7 190 - 1,6 0 1.007,3
04:50 16,2 14,5 16,0 90,0 0,6 73 - 1,6 0 1.007,4
04:49 16,2 14,5 16,0 90,0 0,7 159 - 1,6 0 1.007,4
04:48 16,2 14,5 16,0 90,0 0,8 152 - 1,6 0 1.007,3
04:47 16,2 14,5 16,0 90,0 0,8 140 - 1,6 0 1.007,3
04:46 16,2 14,5 16,0 90,0 0,8 209 - 1,6 0 1.007,4
04:45 16,2 14,5 16,0 90,0 0,8 108 - 1,6 0 1.007,4
04:44 16,2 14,5 16,0 90,0 1,0 112 - 1,6 0 1.007,4
04:43 16,2 14,5 16,0 90,0 1,0 170 - 1,6 0 1.007,4
04:42 16,2 14,5 16,0 90,0 1,1 102 - 1,6 0 1.007,5
04:41 16,2 14,5 16,0 90,0 1,1 104 - 1,6 0 1.007,5
04:40 16,2 14,5 16,0 90,0 0,8 162 - 1,6 0 1.007,5
04:39 16,2 14,5 16,0 90,0 1,1 253 - 1,6 0 1.007,5
04:38 16,2 14,5 16,0 90,0 1,2 189 - 1,6 0 1.007,5
04:37 16,2 14,5 16,0 90,0 1,1 160 - 1,6 0 1.007,5
04:36 16,2 14,5 16,0 90,0 0,8 114 - 1,6 0 1.007,6
04:35 16,2 14,5 16,0 90,0 0,8 184 - 1,6 0 1.007,5
04:34 16,2 14,5 16,0 90,0 1,0 113 - 1,6 0 1.007,5
04:33 16,2 14,5 16,0 90,0 0,8 138 - 1,6 0 1.007,6
04:32 16,2 14,5 16,0 90,0 0,8 249 - 1,6 0 1.007,6
04:31 16,2 14,5 16,0 90,0 1,0 187 - 1,6 0 1.007,6
04:30 16,2 14,5 16,0 90,0 1,1 178 - 1,6 0 1.007,6
04:29 16,2 14,5 16,0 90,0 1,0 186 - 1,6 0 1.007,7
04:28 16,2 14,5 16,0 90,0 1,0 123 - 1,6 0 1.007,7
04:27 16,2 14,5 16,0 90,0 0,9 171 - 1,6 0 1.007,7
04:26 16,2 14,6 16,1 90,0 0,8 88 - 1,6 0 1.007,6
04:25 16,2 14,6 16,0 90,0 1,0 110 - 1,6 0 1.007,6
04:24 16,2 14,6 16,1 90,0 1,1 91 - 1,6 0 1.007,7
04:23 16,2 14,6 16,1 90,0 0,8 64 - 1,6 0 1.007,6
04:22 16,3 14,6 16,1 90,0 0,8 184 - 1,6 0 1.007,6
04:21 16,3 14,6 16,1 90,0 1,0 112 - 1,6 0 1.007,6
04:20 16,3 14,6 16,1 90,0 0,6 98 - 1,6 0 1.007,7
04:19 16,3 14,6 16,1 90,0 0,4 243 - 1,6 0 1.007,7
04:18 16,3 14,6 16,1 90,0 0,6 155 - 1,6 0 1.007,7
04:17 16,3 14,6 16,1 90,0 0,8 153 - 1,6 0 1.007,7
04:16 16,3 14,6 16,1 90,0 0,9 168 - 1,6 0 1.007,7
04:15 16,3 14,6 16,1 90,0 1,0 155 - 1,6 0 1.007,7
04:14 16,3 14,6 16,1 90,0 1,1 121 - 1,6 0 1.007,7
04:13 16,3 14,7 16,2 90,0 1,0 120 - 1,6 0 1.007,7
04:12 16,3 14,7 16,2 90,0 0,6 164 - 1,6 0 1.007,7
04:11 16,3 14,7 16,2 90,0 0,5 229 - 1,6 0 1.007,8
04:10 16,3 14,7 16,2 90,0 0,7 127 - 1,6 0 1.007,8
04:09 16,3 14,7 16,2 90,0 1,1 202 - 1,6 0 1.007,8
04:08 16,3 14,7 16,2 90,0 1,2 163 - 1,6 0 1.007,8
04:07 16,4 14,7 16,2 90,0 1,0 172 - 1,6 0 1.007,8
04:06 16,4 14,7 16,2 90,0 1,1 209 - 1,6 0 1.007,8
04:05 16,3 14,7 16,2 90,0 1,2 202 - 1,6 0 1.007,8
04:04 16,4 14,7 16,2 90,0 1,2 197 - 1,6 0 1.007,9
04:03 16,4 14,7 16,2 90,0 1,1 185 - 1,6 0 1.007,9
04:02 16,4 14,7 16,2 90,0 1,2 206 - 1,6 0 1.007,9
04:01 16,4 14,7 16,2 90,0 1,4 156 - 1,6 0 1.007,9
04:00 16,4 14,7 16,2 90,0 1,4 182 - 1,6 0 1.007,9
 
03:59 16,4 14,7 16,2 90,0 1,4 211 - 1,6 0 1.007,9
03:58 16,4 14,7 16,2 90,0 1,5 192 - 1,6 0 1.007,9
03:57 16,4 14,7 16,2 90,0 1,5 186 - 1,6 0 1.007,9
03:56 16,4 14,7 16,2 90,0 1,4 191 - 1,6 0 1.007,8
03:55 16,4 14,7 16,2 90,0 1,2 185 - 1,6 0 1.007,8
03:54 16,4 14,8 16,3 90,0 1,2 192 - 1,6 0 1.007,9
03:53 16,4 14,8 16,3 90,0 1,2 175 - 1,6 0 1.007,9
03:52 16,4 14,8 16,3 90,0 1,1 198 - 1,6 0 1.007,9
03:51 16,4 14,8 16,3 90,0 1,1 211 - 1,6 0 1.007,9
03:50 16,4 14,8 16,3 90,0 1,3 162 - 1,6 0 1.007,9
03:49 16,4 14,8 16,3 90,0 1,5 193 - 1,6 0 1.007,9
03:48 16,4 14,8 16,3 90,0 1,5 165 - 1,6 0 1.007,9
03:47 16,4 14,8 16,3 90,0 1,4 182 - 1,6 0 1.007,9
03:46 16,4 14,8 16,3 90,0 1,4 168 - 1,6 0 1.007,9
03:45 16,5 14,8 16,3 90,0 1,4 134 - 1,6 0 1.007,9
03:44 16,5 14,8 16,3 90,0 1,3 198 - 1,6 0 1.007,9
03:43 16,5 14,8 16,4 90,0 1,6 195 - 1,6 0 1.007,9
03:42 16,5 14,8 16,4 90,0 1,6 176 - 1,6 0 1.007,9
03:41 16,5 14,8 16,3 90,0 1,5 212 - 1,6 0 1.007,8
03:40 16,5 14,8 16,4 90,0 1,3 211 - 1,6 0 1.007,8
03:39 16,5 14,8 16,4 90,0 1,3 189 - 1,6 0 1.007,8
03:38 16,5 14,8 16,4 90,0 1,3 197 - 1,6 0 1.007,7
03:37 16,5 14,9 16,4 90,0 1,2 162 - 1,6 0 1.007,7
03:36 16,5 14,9 16,4 90,0 1,0 209 - 1,6 0 1.007,7
03:35 16,5 14,9 16,4 90,0 1,0 192 - 1,6 0 1.007,7
03:34 16,6 14,9 16,4 90,0 0,9 213 - 1,6 0 1.007,7
03:33 16,5 14,9 16,4 90,0 0,8 235 - 1,6 0 1.007,7
03:32 16,6 14,9 16,4 90,0 0,9 182 - 1,6 0 1.007,7
03:31 16,6 14,9 16,4 90,0 0,8 162 - 1,6 0 1.007,7
03:30 16,6 14,9 16,4 90,0 0,8 253 - 1,6 0 1.007,6
03:29 16,6 14,9 16,4 90,0 0,9 187 - 1,6 0 1.007,6
03:28 16,6 14,9 16,4 90,0 1,0 202 - 1,6 0 1.007,6
03:27 16,6 14,9 16,4 90,0 1,0 158 - 1,6 0 1.007,7
03:26 16,6 14,9 16,5 90,0 1,0 197 - 1,6 0 1.007,7
03:25 16,6 14,9 16,5 90,0 1,1 244 - 1,6 0 1.007,7
03:24 16,6 14,9 16,5 90,0 1,2 168 - 1,6 0 1.007,7
03:23 16,6 14,9 16,5 90,0 1,5 225 - 1,6 0 1.007,7
03:22 16,6 15,0 16,5 90,0 1,4 190 - 1,6 0 1.007,7
03:21 16,6 15,0 16,5 90,0 1,3 183 - 1,6 0 1.007,7
03:20 16,6 15,0 16,5 90,0 1,2 184 - 1,6 0 1.007,7
03:19 16,7 15,0 16,5 90,0 1,1 188 - 1,6 0 1.007,6
03:18 16,6 15,0 16,5 90,2 0,9 179 - 1,6 0 1.007,6
03:17 16,7 15,1 16,6 90,6 0,6 202 - 1,6 0 1.007,6
03:16 16,7 15,1 16,6 90,5 0,6 129 - 1,6 0 1.007,6
03:15 16,7 15,0 16,6 90,3 0,8 103 - 1,6 0 1.007,6
03:14 16,7 15,0 16,5 90,0 0,9 161 - 1,6 0 1.007,5
03:13 16,7 15,0 16,5 90,0 1,0 161 - 1,6 0 1.007,5
03:12 16,7 15,0 16,5 90,0 1,1 109 - 1,6 0 1.007,5
03:11 16,7 15,0 16,5 90,0 1,2 89 - 1,6 0 1.007,5
03:10 16,7 15,0 16,5 90,0 1,1 132 - 1,6 0 1.007,6
03:09 16,7 15,0 16,5 90,0 0,8 88 - 1,6 0 1.007,5
03:08 16,7 15,0 16,5 90,0 0,8 205 - 1,6 0 1.007,5
03:07 16,7 15,0 16,5 90,0 1,0 137 - 1,6 0 1.007,6
03:06 16,7 15,0 16,5 90,0 1,0 127 - 1,6 0 1.007,6
03:05 16,7 15,0 16,5 90,0 0,9 167 - 1,6 0 1.007,6
03:04 16,7 15,0 16,6 90,0 0,8 101 - 1,6 0 1.007,6
03:02 16,7 15,1 16,6 90,0 0,8 42 - 1,6 0 1.007,7
03:01 16,7 15,1 16,6 90,0 0,9 136 - 1,6 0 1.007,7
03:00 16,7 15,1 16,6 90,0 1,0 99 - 1,6 0 1.007,8
 
02:59 16,7 15,0 16,6 90,0 0,9 111 - 1,6 0 1.007,8
02:58 16,7 15,1 16,6 90,0 0,8 159 - 1,6 0 1.007,8
02:57 16,7 15,1 16,6 90,0 0,9 158 - 1,6 0 1.007,9
02:56 16,7 15,1 16,6 90,0 0,6 169 - 1,6 0 1.007,9
02:55 16,7 15,1 16,6 90,0 0,7 66 - 1,6 0 1.007,9
02:54 16,7 15,1 16,6 90,0 0,9 192 - 1,6 0 1.007,9
02:53 16,7 15,1 16,6 90,0 1,2 168 - 1,6 0 1.007,9
02:52 16,7 15,1 16,6 90,0 1,1 138 - 1,6 0 1.008,0
02:51 16,7 15,1 16,6 90,0 1,0 184 - 1,6 0 1.008,0
02:50 16,7 15,1 16,6 90,0 0,7 136 - 1,6 0 1.008,0
02:49 16,7 15,1 16,6 90,0 0,7 80 - 1,6 0 1.008,0
02:48 16,7 15,1 16,6 90,0 0,7 154 - 1,6 0 1.008,0
02:47 16,8 15,1 16,6 90,0 0,9 116 - 1,6 0 1.008,0
02:46 16,7 15,1 16,6 90,0 0,9 123 - 1,6 0 1.008,0
02:45 16,7 15,1 16,6 90,0 0,6 155 - 1,6 0 1.008,0
02:44 16,7 15,1 16,6 90,0 0,6 245 - 1,6 0 1.008,0
02:43 16,8 15,1 16,6 90,0 0,5 138 - 1,6 0 1.008,1
02:42 16,8 15,1 16,6 90,0 0,8 109 - 1,6 0 1.008,1
02:41 16,7 15,1 16,6 90,0 0,7 101 - 1,6 0 1.008,2
02:40 16,8 15,1 16,6 90,0 0,7 199 - 1,6 0 1.008,2
02:39 16,8 15,1 16,6 90,0 0,9 154 - 1,6 0 1.008,1
02:38 16,8 15,1 16,6 90,0 1,1 167 - 1,6 0 1.008,2
02:37 16,8 15,1 16,6 90,0 1,1 175 - 1,6 0 1.008,2
02:36 16,7 15,1 16,6 90,0 0,7 186 - 1,6 0 1.008,2
02:35 16,8 15,1 16,6 90,0 0,6 98 - 1,6 0 1.008,1
02:34 16,8 15,1 16,6 90,0 0,8 186 - 1,6 0 1.008,2
02:33 16,8 15,1 16,6 90,0 1,0 202 - 1,6 0 1.008,2
02:32 16,8 15,1 16,6 90,0 0,9 190 - 1,6 0 1.008,1
02:31 16,8 15,1 16,6 90,0 0,9 253 - 1,6 0 1.008,1
02:30 16,7 15,1 16,6 90,0 0,6 188 - 1,6 0 1.008,1
02:29 16,8 15,1 16,6 90,0 0,8 120 - 1,6 0 1.008,2
02:28 16,8 15,1 16,6 90,0 1,0 180 - 1,6 0 1.008,2
02:27 16,8 15,1 16,6 90,0 1,1 170 - 1,6 0 1.008,2
02:26 16,8 15,1 16,6 90,0 1,0 186 - 1,6 0 1.008,2
02:25 16,8 15,1 16,6 90,0 0,6 120 - 1,6 0 1.008,1
02:24 16,8 15,1 16,6 90,0 0,9 43 - 1,6 0 1.008,2
02:23 16,8 15,1 16,6 90,0 1,1 136 - 1,6 0 1.008,1
02:22 16,8 15,1 16,6 90,0 1,3 130 - 1,6 0 1.008,1
02:21 16,8 15,1 16,6 90,0 1,1 151 - 1,6 0 1.008,2
02:20 16,8 15,1 16,7 90,0 1,1 131 - 1,6 0 1.008,2
02:19 16,8 15,1 16,7 90,0 1,1 169 - 1,6 0 1.008,2
02:18 16,8 15,1 16,7 90,0 1,0 106 - 1,6 0 1.008,1
02:17 16,8 15,1 16,7 90,0 0,9 163 - 1,6 0 1.008,1
02:16 16,8 15,2 16,7 90,0 0,8 119 - 1,6 0 1.008,1
02:15 16,8 15,2 16,7 90,0 0,9 70 - 1,6 0 1.008,1
02:14 16,8 15,2 16,7 90,0 0,9 106 - 1,6 0 1.008,2
02:13 16,8 15,2 16,7 90,0 0,7 118 - 1,6 0 1.008,2
02:12 16,8 15,2 16,7 90,0 0,7 206 - 1,6 0 1.008,2
02:11 16,9 15,2 16,7 90,0 0,7 113 - 1,6 0 1.008,1
02:10 16,9 15,2 16,7 90,0 0,9 205 - 1,6 0 1.008,2
02:09 16,9 15,2 16,7 90,0 0,8 163 - 1,6 0 1.008,2
02:08 16,9 15,2 16,8 90,0 0,9 65 - 1,6 0 1.008,2
02:07 16,9 15,2 16,8 90,0 0,5 160 - 1,6 0 1.008,2
02:06 16,9 15,2 16,8 90,0 0,3 246 - 1,6 0 1.008,2
02:05 16,9 15,2 16,8 90,0 0,6 66 - 1,6 0 1.008,1
02:04 16,9 15,3 16,8 90,0 1,1 95 - 1,6 0 1.008,1
02:03 16,9 15,3 16,8 90,0 1,1 130 - 1,6 0 1.008,2
02:02 16,9 15,3 16,8 90,0 1,0 149 - 1,6 0 1.008,2
02:01 17,0 15,3 16,8 90,0 1,1 99 - 1,6 0 1.008,2
02:00 17,0 15,3 16,9 90,0 1,2 126 - 1,6 0 1.008,1
 
01:59 17,0 15,3 16,9 90,0 1,1 70 - 1,6 0 1.008,1
01:58 17,0 15,3 16,9 90,0 1,0 115 - 1,6 0 1.008,2
01:57 17,0 15,4 16,9 90,0 1,1 105 - 1,6 0 1.008,1
01:56 17,0 15,4 16,9 90,0 1,1 114 - 1,6 0 1.008,2
01:55 17,1 15,4 16,9 90,0 1,3 135 - 1,6 0 1.008,2
01:54 17,1 15,4 17,0 90,0 1,2 88 - 1,6 0 1.008,2
01:53 17,1 15,4 17,0 90,0 1,0 156 - 1,6 0 1.008,2
01:52 17,1 15,4 17,0 90,0 1,0 104 - 1,6 0 1.008,2
01:51 17,1 15,4 17,0 90,0 1,0 92 - 1,6 0 1.008,2
01:50 17,1 15,5 17,0 89,9 0,9 57 - 1,6 0 1.008,2
01:49 17,2 15,3 16,9 89,0 0,9 136 - 1,6 0 1.008,3
01:48 17,2 15,4 17,0 89,0 1,2 185 - 1,6 0 1.008,3
01:47 17,2 15,4 17,0 89,0 1,2 135 - 1,6 0 1.008,3
01:46 17,2 15,4 17,0 89,0 1,3 114 - 1,6 0 1.008,3
01:45 17,3 15,4 17,0 89,0 0,9 93 - 1,6 0 1.008,3
01:44 17,3 15,4 17,0 89,0 0,6 228 - 1,6 0 1.008,4
01:43 17,3 15,5 17,1 89,0 0,8 107 - 1,6 0 1.008,4
01:42 17,3 15,6 17,2 89,5 1,1 184 - 1,6 0 1.008,4
01:41 17,3 15,7 17,2 90,0 1,2 122 - 1,6 0 1.008,4
01:40 17,4 15,7 17,3 90,0 1,2 107 - 1,6 0 1.008,4
01:39 17,4 15,7 17,3 90,0 1,0 113 - 1,6 0 1.008,4
01:38 17,4 15,7 17,3 90,0 0,8 70 - 1,6 0 1.008,3
01:37 17,4 15,8 17,3 90,0 0,8 132 - 1,6 0 1.008,4
01:36 17,4 15,8 17,4 90,0 0,9 127 - 1,6 0 1.008,3
01:35 17,4 15,8 17,4 90,0 0,9 154 - 1,6 0 1.008,4
01:34 17,5 15,8 17,4 90,0 0,7 97 - 1,6 0 1.008,4
01:33 17,5 15,8 17,4 90,0 0,7 134 - 1,6 0 1.008,4
01:32 17,5 15,8 17,4 90,0 0,7 161 - 1,6 0 1.008,4
01:31 17,5 15,8 17,4 89,6 0,8 99 - 1,6 0 1.008,4
01:30 17,5 15,7 17,3 89,0 0,8 105 - 1,6 0 1.008,4
01:29 17,5 15,7 17,3 89,0 0,7 130 - 1,6 0 1.008,4
01:28 17,6 15,7 17,3 89,0 0,6 101 - 1,6 0 1.008,4
01:27 17,6 15,7 17,3 89,0 0,8 152 - 1,6 0 1.008,4
01:26 17,6 15,7 17,3 89,0 0,9 93 - 1,6 0 1.008,4
01:25 17,6 15,7 17,3 89,0 1,0 93 - 1,6 0 1.008,4
01:24 17,6 15,7 17,3 89,0 0,9 103 - 1,6 0 1.008,5
01:23 17,6 15,7 17,3 89,0 0,9 95 - 1,6 0 1.008,5
01:22 17,6 15,7 17,4 89,0 0,6 101 - 1,6 0 1.008,5
01:21 17,6 15,7 17,4 89,0 0,3 141 - 1,6 0 1.008,5
01:20 17,6 15,8 17,4 89,0 0,2 141 - 1,6 0 1.008,5
01:19 17,6 15,7 17,4 89,0 0,2 141 - 1,6 0 1.008,4
01:18 17,6 15,7 17,4 89,0 0,1 141 - 1,6 0 1.008,4
01:17 17,6 15,8 17,4 89,0 0,2 141 - 1,6 0 1.008,5
01:16 17,6 15,8 17,4 89,0 0,3 141 - 1,6 0 1.008,5
01:15 17,6 15,8 17,4 89,0 0,2 141 - 1,6 0 1.008,5
01:14 17,6 15,8 17,4 89,0 0,1 141 - 1,6 0 1.008,5
01:13 17,6 15,8 17,4 89,0 0,0 174 - 1,6 0 1.008,5
01:12 17,6 15,8 17,4 89,0 0,1 174 - 1,6 0 1.008,5
01:11 17,6 15,8 17,4 89,0 0,2 174 - 1,6 0 1.008,5
01:10 17,6 15,8 17,4 89,0 0,2 174 - 1,6 0 1.008,5
01:09 17,7 15,8 17,4 89,0 0,1 174 - 1,6 0 1.008,5
01:08 17,6 15,8 17,4 89,0 0,2 174 - 1,6 0 1.008,6
01:07 17,7 15,8 17,5 89,0 0,4 174 - 1,6 0 1.008,6
01:06 17,7 15,8 17,5 89,0 0,7 179 - 1,6 0 1.008,6
01:05 17,7 15,8 17,4 89,0 1,0 176 - 1,6 0 1.008,6
01:04 17,7 15,8 17,5 89,0 1,0 175 - 1,6 0 1.008,6
01:03 17,7 15,8 17,5 89,0 1,0 175 - 1,6 0 1.008,6
01:02 17,7 15,8 17,5 89,0 1,0 175 - 1,6 0 1.008,6
01:01 17,7 15,8 17,4 89,0 1,1 175 - 1,6 0 1.008,6
01:00 17,7 15,8 17,5 89,0 1,1 155 - 1,6 0 1.008,6
 
00:59 17,7 15,8 17,4 89,0 1,0 155 - 1,6 0 1.008,6
00:58 17,6 15,8 17,4 89,0 0,7 153 - 1,6 0 1.008,6
00:57 17,6 15,8 17,4 89,0 0,3 153 - 1,6 0 1.008,6
00:56 17,6 15,8 17,4 89,0 0,2 153 - 1,6 0 1.008,6
00:55 17,6 15,8 17,4 89,0 0,1 153 - 1,6 0 1.008,6
00:54 17,7 15,8 17,4 89,0 0,1 153 - 1,6 0 1.008,6
00:53 17,7 15,8 17,5 89,0 0,3 153 - 1,6 0 1.008,6
00:52 17,7 15,8 17,5 89,0 0,4 153 - 1,6 0 1.008,6
00:51 17,7 15,8 17,5 89,0 0,3 124 - 1,6 0 1.008,7
00:50 17,7 15,8 17,5 89,0 0,2 190 - 1,6 0 1.008,7
00:49 17,7 15,8 17,5 89,0 0,4 190 - 1,6 0 1.008,7
00:48 17,7 15,8 17,5 89,0 1,0 192 - 1,6 0 1.008,8
00:47 17,7 15,8 17,5 89,0 1,4 174 - 1,6 0 1.008,8
00:46 17,7 15,8 17,5 89,0 1,7 197 - 1,6 0 1.008,8
00:45 17,7 15,8 17,5 89,0 1,8 170 - 1,6 0 1.008,8
00:44 17,7 15,9 17,5 89,0 1,9 190 - 1,6 0 1.008,8
00:43 17,7 15,9 17,5 89,0 2,0 199 - 1,6 0 1.008,8
00:42 17,7 15,9 17,5 89,0 2,2 208 - 1,6 0 1.008,7
00:41 17,7 15,9 17,5 89,0 2,4 217 - 1,6 0 1.008,8
00:40 17,7 15,9 17,5 89,0 2,4 211 - 1,6 0 1.008,8
00:39 17,7 15,9 17,5 89,0 2,2 211 - 1,6 0 1.008,8
00:38 17,7 15,9 17,5 89,0 2,1 192 - 1,6 0 1.008,9
00:37 17,7 15,9 17,5 89,0 2,2 217 - 1,6 0 1.008,9
00:36 17,7 15,9 17,5 89,0 2,5 222 - 1,6 0 1.008,9
00:35 17,7 15,9 17,5 89,0 2,8 221 - 1,6 0 1.008,9
00:34 17,7 15,9 17,5 89,0 2,8 236 - 1,6 0 1.009,0
00:33 17,7 15,8 17,5 88,7 2,6 204 - 1,6 0 1.009,0
00:32 17,7 15,7 17,4 88,0 2,5 197 - 1,6 0 1.009,0
00:31 17,7 15,7 17,4 88,0 2,7 230 - 1,6 0 1.009,0
00:30 17,7 15,7 17,4 88,0 3,2 217 - 1,6 0 1.009,0
00:29 17,8 15,8 17,4 88,0 3,6 223 - 1,6 0 1.009,0
00:28 17,8 15,8 17,4 88,0 3,8 209 - 1,6 0 1.009,0
00:27 17,8 15,8 17,4 88,0 4,1 243 - 1,6 0 1.009,0
00:26 17,8 15,7 17,4 88,0 4,7 244 - 1,6 0 1.009,0
00:25 17,8 15,7 17,4 87,4 4,4 230 - 1,6 0 1.009,0
00:24 17,8 15,6 17,3 87,0 3,7 238 - 1,6 0 1.009,0
00:23 17,8 15,6 17,4 87,0 2,9 237 - 1,6 0 1.009,0
00:22 17,8 15,6 17,4 87,0 2,4 212 - 1,4 0 1.009,0
00:21 17,8 15,6 17,4 87,0 1,9 226 - 1,4 0 1.009,0
00:20 17,8 15,6 17,4 87,0 1,8 205 - 1,4 0 1.009,0
00:19 17,8 15,6 17,4 87,0 2,2 190 - 0,6 0 1.009,1
00:18 17,8 15,6 17,4 87,0 2,5 209 - 0,4 0 1.009,1
00:17 17,8 15,6 17,3 87,0 2,5 207 - 0,2 0 1.009,0
00:16 17,8 15,6 17,4 87,0 2,0 216 - 0,0 0 1.009,0
00:15 17,8 15,6 17,3 87,0 1,4 218 - 0,0 0 1.009,0
00:14 17,8 15,6 17,3 87,0 0,7 205 - 0,0 0 1.009,0
00:13 17,8 15,6 17,3 87,0 0,6 157 - 0,0 0 1.008,9
00:12 17,8 15,6 17,3 87,0 0,6 158 - 0,0 0 1.008,9
00:11 17,8 15,6 17,3 87,0 0,6 151 - 0,0 0 1.008,9
00:10 17,8 15,6 17,3 87,0 0,6 152 - 0,0 0 1.008,9
00:09 17,8 15,6 17,3 87,0 0,6 150 - 0,0 0 1.008,9
00:08 17,8 15,6 17,4 87,0 0,5 118 - 0,0 0 1.008,9
00:07 17,8 15,6 17,4 87,0 0,7 55 - 0,0 0 1.008,9
00:06 17,8 15,6 17,4 87,0 1,0 71 - 0,0 0 1.008,9
00:05 17,8 15,6 17,4 87,0 1,2 75 - 0,0 0 1.009,0
00:04 17,8 15,6 17,4 87,0 1,3 90 - 0,0 0 1.009,0
00:03 17,8 15,6 17,4 87,0 1,3 66 - 0,0 0 1.008,9
00:02 17,8 15,6 17,4 87,0 0,9 94 - 0,0 0 1.009,0
00:01 17,8 15,6 17,4 87,0 0,9 168 - 0,0 0 1.009,0
00:00 17,8 15,6 17,4 87,0 0,9 171 - 12,8 0 1.009,0
 
23:59 17,8 15,6 17,4 87,0 0,8 110 - 12,8 0 1.009,0
23:58 17,8 15,6 17,4 87,0 1,0 73 - 12,8 0 1.009,0
23:57 17,8 15,6 17,4 87,0 1,1 82 - 12,8 0 1.009,0
23:56 17,8 15,6 17,4 87,0 1,0 99 - 12,8 0 1.009,0
23:55 17,8 15,6 17,4 87,0 0,8 67 - 12,8 0 1.009,0
23:54 17,8 15,6 17,4 87,0 0,6 171 - 12,8 0 1.009,0
23:53 17,8 15,6 17,4 87,0 0,6 85 - 12,8 0 1.009,0
23:52 17,8 15,6 17,4 87,0 0,6 74 - 12,8 0 1.009,0
23:51 17,8 15,6 17,4 87,0 0,7 174 - 12,8 0 1.009,0
23:50 17,8 15,6 17,4 87,0 0,8 120 - 12,8 0 1.009,0
23:49 17,8 15,6 17,4 87,0 0,8 103 - 12,8 0 1.009,0
23:48 17,8 15,6 17,4 87,0 0,3 147 - 12,8 0 1.009,0
23:47 17,8 15,6 17,4 87,0 0,1 345 - 12,8 0 1.009,1
23:46 17,8 15,6 17,4 87,0 0,2 130 - 12,8 0 1.009,1
23:45 17,8 15,6 17,4 87,0 0,6 124 - 12,8 0 1.009,1
23:44 17,9 15,7 17,4 87,0 0,8 116 - 12,8 0 1.009,1
23:43 17,8 15,6 17,4 87,0 0,8 157 - 12,8 0 1.009,1
23:42 17,8 15,6 17,4 87,0 0,7 95 - 12,8 0 1.009,1
23:41 17,8 15,6 17,4 87,0 0,8 78 - 12,8 0 1.009,1
23:40 17,8 15,6 17,4 87,0 0,9 113 - 12,8 0 1.009,1
23:39 17,8 15,6 17,4 87,0 1,0 141 - 12,8 0 1.009,1
23:38 17,8 15,6 17,4 87,0 0,9 111 - 12,8 0 1.009,1
23:37 17,9 15,7 17,4 87,0 0,9 97 - 12,8 0 1.009,1
23:36 17,8 15,6 17,4 87,0 1,0 140 - 12,8 0 1.009,1
23:35 17,9 15,7 17,4 87,0 1,0 91 - 12,8 0 1.009,1
23:34 17,9 15,7 17,4 87,0 0,7 94 - 12,8 0 1.009,2
23:33 17,9 15,7 17,4 87,0 1,0 199 - 12,8 0 1.009,1
23:32 17,9 15,7 17,4 87,0 1,6 98 - 12,8 0 1.009,1
23:31 17,9 15,7 17,4 87,0 2,1 111 - 12,8 0 1.009,1
23:30 17,9 15,7 17,4 87,0 1,8 92 - 12,8 0 1.009,1
23:29 17,9 15,7 17,4 87,0 0,9 129 - 12,8 0 1.009,1
23:28 17,9 15,7 17,4 87,0 0,7 236 - 12,8 0 1.009,1
23:27 17,9 15,7 17,4 87,0 0,5 93 - 12,8 0 1.009,1
23:26 17,9 15,7 17,4 87,0 0,7 109 - 12,8 0 1.009,1
23:25 17,9 15,7 17,4 87,0 0,4 185 - 12,8 0 1.009,1
23:24 17,9 15,7 17,4 87,0 0,6 291 - 12,8 0 1.009,1
23:23 17,9 15,7 17,4 87,0 0,5 178 - 12,8 0 1.009,2
23:22 17,9 15,7 17,4 87,0 0,7 122 - 12,8 0 1.009,2
23:21 17,9 15,7 17,4 87,0 0,7 118 - 12,8 0 1.009,3
23:20 17,9 15,7 17,4 87,0 0,7 138 - 12,8 0 1.009,3
23:19 17,9 15,7 17,4 87,0 0,9 158 - 12,8 0 1.009,2
23:18 17,9 15,5 17,3 86,1 1,0 104 - 12,8 0 1.009,3
23:17 17,9 15,5 17,3 86,0 1,0 93 - 12,8 0 1.009,3
23:16 17,9 15,5 17,3 86,0 0,9 64 - 12,8 0 1.009,2
23:15 17,9 15,5 17,3 86,0 1,0 92 - 12,8 0 1.009,3
23:14 17,9 15,5 17,3 86,0 1,3 105 - 12,8 0 1.009,2
23:13 17,9 15,5 17,3 86,0 1,2 83 - 12,8 0 1.009,2
23:12 17,9 15,5 17,3 86,0 1,0 149 - 12,8 0 1.009,2
23:11 17,9 15,5 17,3 86,0 0,9 94 - 12,8 0 1.009,3
23:10 17,9 15,5 17,3 86,0 0,8 151 - 12,8 0 1.009,2
23:09 17,9 15,5 17,3 86,0 0,9 161 - 12,8 0 1.009,3
23:08 17,9 15,6 17,3 86,0 1,0 100 - 12,8 0 1.009,3
23:07 17,9 15,5 17,3 86,0 1,0 95 - 12,8 0 1.009,3
23:06 17,9 15,6 17,3 86,0 0,9 153 - 12,8 0 1.009,3
23:05 17,9 15,6 17,3 86,0 0,9 91 - 12,8 0 1.009,3
23:04 17,9 15,6 17,3 86,0 0,7 134 - 12,8 0 1.009,3
23:03 17,9 15,6 17,3 86,0 0,9 151 - 12,8 0 1.009,3
23:02 18,0 15,6 17,4 86,0 1,3 148 - 12,8 0 1.009,4
23:01 18,0 15,6 17,3 86,0 1,4 161 - 12,8 0 1.009,3
23:00 18,0 15,6 17,4 86,0 1,3 130 - 12,8 0 1.009,3
 
22:59 18,0 15,6 17,4 86,0 1,3 151 - 12,8 0 1.009,4
22:58 18,0 15,6 17,4 86,0 1,2 130 - 12,8 0 1.009,4
22:57 18,0 15,6 17,4 86,0 1,1 174 - 12,8 0 1.009,3
22:56 18,0 15,6 17,4 86,0 0,9 117 - 12,8 0 1.009,4
22:55 18,0 15,7 17,4 86,0 1,0 132 - 12,8 0 1.009,4
22:54 18,1 15,7 17,5 86,0 1,3 125 - 12,8 0 1.009,4
22:53 18,1 15,7 17,5 86,0 1,5 157 - 12,8 0 1.009,4
22:52 18,1 15,7 17,5 86,0 1,3 157 - 12,8 0 1.009,4
22:51 18,1 15,7 17,5 86,0 1,1 126 - 12,8 0 1.009,4
22:50 18,1 15,6 17,4 85,2 1,2 113 - 12,8 0 1.009,4
22:49 18,1 15,5 17,3 85,0 1,2 103 - 12,8 0 1.009,4
22:48 18,1 15,5 17,3 85,0 1,1 102 - 12,8 0 1.009,4
22:47 18,1 15,5 17,4 85,0 1,0 120 - 12,8 0 1.009,4
22:46 18,1 15,5 17,4 85,0 1,0 107 - 12,8 0 1.009,4
22:45 18,1 15,6 17,4 85,0 0,9 125 - 12,8 0 1.009,4
22:44 18,1 15,6 17,4 85,0 1,0 152 - 12,8 0 1.009,4
22:43 18,1 15,6 17,4 85,0 0,9 155 - 12,8 0 1.009,5
22:42 18,2 15,6 17,4 85,0 0,9 147 - 12,8 0 1.009,5
22:41 18,2 15,6 17,4 85,0 0,9 145 - 12,8 0 1.009,5
22:40 18,2 15,6 17,4 85,0 0,9 143 - 12,8 0 1.009,5
22:39 18,2 15,6 17,4 85,0 0,9 147 - 12,8 0 1.009,5
22:38 18,2 15,6 17,4 85,0 0,9 136 - 12,8 0 1.009,5
22:37 18,2 15,6 17,4 85,0 0,8 103 - 12,8 0 1.009,6
22:36 18,2 15,6 17,5 85,0 0,7 151 - 12,8 0 1.009,6
22:35 18,2 15,6 17,5 85,0 0,7 122 - 12,8 0 1.009,6
22:34 18,2 15,7 17,5 85,0 0,7 151 - 12,8 0 1.009,6
22:33 18,2 15,7 17,5 85,0 0,7 124 - 12,8 0 1.009,6
22:32 18,2 15,7 17,5 85,0 0,8 153 - 12,8 0 1.009,6
22:31 18,2 15,7 17,5 85,0 0,7 146 - 12,8 0 1.009,6
22:30 18,3 15,7 17,5 85,0 0,8 160 - 12,8 0 1.009,6
22:29 18,3 15,7 17,5 85,0 0,8 125 - 12,8 0 1.009,6
22:28 18,3 15,7 17,5 85,0 0,9 156 - 12,8 0 1.009,7
22:27 18,3 15,7 17,6 85,0 0,7 152 - 12,8 0 1.009,6
22:26 18,3 15,8 17,6 85,0 0,9 101 - 12,8 0 1.009,6
22:25 18,3 15,7 17,6 84,9 0,9 144 - 12,8 0 1.009,7
22:24 18,3 15,6 17,5 84,0 0,8 116 - 12,8 0 1.009,7
22:23 18,3 15,6 17,5 84,0 0,8 146 - 12,8 0 1.009,7
22:22 18,3 15,6 17,5 84,0 0,9 155 - 12,8 0 1.009,7
22:21 18,3 15,6 17,5 84,0 0,8 128 - 12,8 0 1.009,7
22:20 18,3 15,6 17,5 84,0 0,5 124 - 12,8 0 1.009,7
22:19 18,4 15,6 17,5 84,0 0,7 126 - 12,8 0 1.009,7
22:18 18,4 15,6 17,5 84,0 0,7 155 - 12,8 0 1.009,7
22:17 18,4 15,6 17,5 84,0 0,4 101 - 12,8 0 1.009,8
22:16 18,4 15,6 17,5 84,0 0,1 101 - 12,8 0 1.009,8
22:15 18,4 15,6 17,5 84,0 0,0 179 - 12,8 0 1.009,8
22:14 18,4 15,6 17,5 84,0 0,0 107 - 12,8 0 1.009,8
22:13 18,4 15,6 17,5 84,0 0,0 149 - 12,8 0 1.009,8
22:12 18,4 15,7 17,5 84,0 0,0 163 - 12,8 0 1.009,8
22:11 18,4 15,7 17,5 84,0 0,0 125 - 12,8 0 1.009,8
22:10 18,4 15,7 17,5 84,0 0,0 143 - 12,8 0 1.009,8
22:09 18,4 15,7 17,5 84,0 0,0 153 - 12,8 0 1.009,8
22:08 18,4 15,7 17,6 84,0 0,0 130 - 12,8 0 1.009,8
22:07 18,4 15,7 17,6 84,0 0,0 102 - 12,8 0 1.009,8
22:06 18,4 15,6 17,5 83,7 0,0 88 - 12,8 0 1.009,8
22:05 18,4 15,5 17,4 83,0 0,0 120 - 12,8 0 1.009,8
22:04 18,4 15,5 17,4 83,0 0,0 105 - 12,8 0 1.009,9
22:03 18,5 15,5 17,4 83,0 0,0 149 - 12,8 0 1.009,9
22:02 18,5 15,5 17,4 83,0 0,0 128 - 12,8 0 1.009,9
22:01 18,5 15,6 17,5 83,0 0,0 134 - 12,8 0 1.009,9
22:00 18,5 15,6 17,5 83,0 0,0 107 - 12,8 0 1.009,9
 
21:59 18,5 15,6 17,5 83,0 0,0 148 - 12,8 0 1.009,9
21:58 18,5 15,6 17,5 83,0 0,0 103 - 12,8 0 1.009,9
21:57 18,5 15,6 17,5 83,0 0,0 116 - 12,8 0 1.009,9
21:56 18,5 15,6 17,5 83,0 0,0 126 - 12,8 0 1.010,0
21:55 18,6 15,6 17,5 83,0 0,0 113 - 12,8 0 1.010,0
21:54 18,6 15,6 17,6 83,0 0,0 123 - 12,8 0 1.009,9
21:53 18,6 15,6 17,6 83,0 0,0 148 - 12,8 0 1.009,9
21:52 18,6 15,7 17,6 83,0 0,0 109 - 12,8 0 1.009,9
21:51 18,6 15,7 17,6 83,0 0,0 128 - 12,8 0 1.009,9
21:50 18,6 15,7 17,6 83,0 0,0 130 - 12,8 0 1.009,9
21:49 18,6 15,7 17,6 83,0 0,0 126 - 12,8 0 1.010,0
21:48 18,7 15,6 17,6 82,4 0,0 129 - 12,8 0 1.009,9
21:47 18,7 15,6 17,5 82,0 0,0 123 - 12,8 0 1.009,9
21:46 18,7 15,6 17,5 82,0 0,0 136 - 12,8 0 1.010,0
21:45 18,7 15,6 17,5 82,0 0,0 156 - 12,8 0 1.010,0
21:44 18,7 15,7 17,7 82,8 0,0 153 - 12,8 0 1.010,0
21:43 18,7 15,6 17,5 82,0 0,0 145 - 12,8 0 1.010,0
21:42 18,7 15,6 17,5 82,0 0,0 134 - 12,8 0 1.010,0
21:41 18,7 15,6 17,6 82,0 0,0 122 - 12,8 0 1.010,1
21:40 18,7 15,6 17,6 82,0 0,0 135 - 12,8 0 1.010,1
21:39 18,7 15,6 17,6 82,0 0,0 135 - 12,8 0 1.010,1
21:38 18,8 15,6 17,6 82,0 0,0 139 - 12,8 0 1.010,1
21:37 18,8 15,6 17,6 82,0 0,0 155 - 12,8 0 1.010,1
21:36 18,8 15,7 17,6 82,0 0,0 116 - 12,8 0 1.010,2
21:35 18,8 15,7 17,6 82,0 0,0 140 - 12,8 0 1.010,2
21:34 18,8 15,7 17,7 82,0 0,0 149 - 12,8 0 1.010,2
21:33 18,8 15,7 17,7 82,0 0,0 108 - 12,8 0 1.010,2
21:32 18,8 15,7 17,7 82,0 0,0 105 - 12,8 0 1.010,2
21:31 18,8 15,7 17,7 82,0 0,0 139 - 12,8 0 1.010,2
21:30 18,8 15,7 17,7 82,0 0,0 121 - 12,8 0 1.010,2
21:29 18,8 15,7 17,7 82,0 0,0 128 - 12,8 0 1.010,2
21:28 18,8 15,7 17,7 82,0 0,0 128 - 12,8 0 1.010,1
21:27 18,9 15,7 17,7 82,0 0,0 123 - 12,8 0 1.010,1
21:26 18,9 15,8 17,7 82,0 0,0 124 - 12,8 0 1.010,2
21:25 18,9 15,8 17,7 82,0 0,0 118 - 12,8 0 1.010,2
21:24 18,9 15,7 17,7 81,5 0,0 127 - 12,8 0 1.010,2
21:23 18,9 15,6 17,6 81,0 0,0 129 - 12,8 0 1.010,3
21:22 18,9 15,6 17,6 81,0 0,0 117 - 12,8 0 1.010,3
21:21 18,9 15,6 17,6 81,0 0,0 120 - 12,8 0 1.010,3
21:20 18,9 15,6 17,7 81,0 0,0 130 - 12,8 0 1.010,3
21:19 18,9 15,6 17,7 81,0 0,0 127 - 12,8 0 1.010,3
21:18 18,9 15,6 17,7 81,0 0,0 131 - 12,8 0 1.010,2
21:17 18,9 15,6 17,7 81,0 0,0 114 - 12,8 0 1.010,2
21:16 18,9 15,6 17,6 81,0 0,0 122 - 12,8 0 1.010,2
21:15 19,0 15,7 17,7 81,0 0,0 117 - 12,8 0 1.010,2
21:14 19,0 15,7 17,7 81,0 0,0 147 - 12,8 0 1.010,2
21:13 19,0 15,7 17,7 81,0 0,0 141 - 12,8 0 1.010,2
21:12 19,0 15,7 17,7 81,0 0,0 117 - 12,8 0 1.010,3
21:11 19,0 15,7 17,7 81,0 0,0 90 - 12,8 0 1.010,3
21:10 19,0 15,7 17,7 81,0 0,0 95 - 12,8 0 1.010,3
21:09 19,0 15,7 17,7 81,0 0,0 97 - 12,8 0 1.010,2
21:08 19,0 15,7 17,7 81,0 0,0 100 - 12,8 0 1.010,3
21:07 19,0 15,7 17,7 81,0 0,0 111 - 12,8 0 1.010,2
21:06 19,0 15,7 17,8 81,0 0,0 136 - 12,8 0 1.010,2
21:05 19,0 15,7 17,8 81,0 0,1 143 - 12,8 0 1.010,2
21:04 19,0 15,7 17,8 81,0 0,1 128 - 12,8 0 1.010,2
21:03 19,1 15,8 17,8 81,0 0,0 137 - 12,8 0 1.010,2
21:02 19,1 15,8 17,8 81,0 0,0 135 - 12,8 0 1.010,2
21:01 19,1 15,8 17,8 81,0 0,0 135 - 12,8 0 1.010,2
21:00 19,1 15,8 17,8 81,0 0,0 103 - 12,8 0 1.010,2
 
20:59 19,1 15,8 17,8 81,0 0,2 135 - 12,8 0 1.010,1
20:58 19,1 15,8 17,8 81,0 0,5 136 - 12,8 0 1.010,2
20:57 19,1 15,8 17,8 81,0 0,8 100 - 12,8 0 1.010,2
20:56 19,1 15,8 17,8 81,0 0,8 108 - 12,8 0 1.010,2
20:55 19,1 15,8 17,9 81,0 0,6 121 - 12,8 0 1.010,2
20:54 19,2 15,9 17,9 81,0 0,5 122 - 12,8 0 1.010,1
20:53 19,2 15,8 17,9 81,0 0,5 117 - 12,8 0 1.010,1
20:52 19,2 15,9 17,9 81,0 0,5 132 - 12,8 0 1.010,1
20:51 19,2 15,9 17,9 81,0 0,6 103 - 12,8 0 1.010,1
20:50 19,2 15,9 17,9 81,0 0,7 99 - 12,8 0 1.010,2
20:49 19,2 15,9 17,9 81,0 0,7 106 - 12,8 0 1.010,2
20:48 19,2 15,9 17,9 81,0 0,5 115 - 12,8 0 1.010,1
20:47 19,2 15,9 17,9 81,0 0,5 116 - 12,8 0 1.010,1
20:46 19,2 15,9 17,9 81,0 0,5 109 - 12,8 0 1.010,1
20:45 19,2 15,9 17,9 81,0 0,5 111 - 12,8 0 1.010,1
20:44 19,2 15,9 17,9 81,0 0,5 115 - 12,8 0 1.010,1
20:43 19,2 15,9 18,0 81,0 0,4 138 - 12,8 0 1.010,2
20:42 19,3 16,0 18,0 81,0 0,4 138 - 12,8 0 1.010,2
20:41 19,3 16,0 18,0 81,0 0,4 138 - 12,8 0 1.010,2
20:40 19,3 16,0 18,0 81,0 0,4 134 - 12,8 0 1.010,2
20:39 19,3 16,0 18,0 81,0 0,4 155 - 12,8 0 1.010,3
20:38 19,3 16,0 18,0 81,0 0,5 153 - 12,8 0 1.010,3
20:37 19,3 16,0 18,0 81,0 0,4 147 - 12,8 0 1.010,3
20:36 19,3 16,0 18,0 81,0 0,3 147 - 12,8 0 1.010,3
20:35 19,3 16,0 18,1 81,0 0,2 146 - 12,8 0 1.010,3
20:34 19,3 16,0 18,1 81,0 0,3 146 - 12,8 0 1.010,3
20:33 19,3 16,0 18,1 81,0 0,3 146 - 12,8 0 1.010,3
20:32 19,3 16,0 18,1 81,0 0,4 145 - 12,8 0 1.010,3
20:31 19,4 16,1 18,1 81,0 0,3 145 - 12,8 0 1.010,3
20:30 19,4 16,2 18,2 81,7 0,4 159 - 12,8 0 1.010,4
20:29 19,4 16,3 18,3 82,0 0,5 159 - 12,8 0 1.010,4
20:28 19,4 16,3 18,3 82,0 0,5 101 - 12,8 0 1.010,4
20:27 19,4 16,3 18,3 82,0 0,5 151 - 12,8 0 1.010,4
20:26 19,4 16,3 18,3 82,0 0,4 139 - 12,8 4 1.010,4
20:25 19,5 16,3 18,3 82,0 0,4 161 - 12,8 5 1.010,4
20:24 19,5 16,3 18,3 82,0 0,5 188 - 12,8 5 1.010,4
20:23 19,5 16,4 18,4 82,0 0,6 195 - 12,8 6 1.010,4
20:22 19,5 16,4 18,4 82,0 0,5 129 - 12,8 7 1.010,5
20:21 19,5 16,4 18,4 82,0 0,4 213 - 12,8 7 1.010,5
20:20 19,5 16,4 18,4 82,0 0,5 205 - 12,8 7 1.010,5
20:19 19,5 16,4 18,4 82,0 0,4 196 - 12,8 7 1.010,5
20:18 19,5 16,4 18,4 82,0 0,4 188 - 12,8 9 1.010,5
20:17 19,6 16,4 18,4 82,0 0,4 207 - 12,8 9 1.010,5
20:16 19,6 16,4 18,4 82,0 0,4 206 - 12,8 9 1.010,5
20:15 19,6 16,4 18,4 82,0 0,5 208 - 12,8 9 1.010,6
20:14 19,6 16,4 18,4 82,0 0,6 208 - 12,8 9 1.010,6
20:13 19,6 16,5 18,5 82,0 0,5 190 - 12,8 9 1.010,5
20:12 19,6 16,5 18,5 82,0 0,5 159 - 12,8 11 1.010,4
20:11 19,6 16,6 18,6 82,9 0,5 200 - 12,8 11 1.010,3
20:10 19,6 16,5 18,5 82,2 0,7 203 - 12,8 11 1.010,3
20:09 19,6 16,7 18,7 83,0 0,7 195 - 12,8 12 1.010,3
20:08 19,6 16,7 18,7 83,0 0,5 197 - 12,8 12 1.010,3
20:07 19,7 16,7 18,7 83,0 0,5 145 - 12,8 12 1.010,3
20:06 19,7 16,7 18,7 83,0 0,5 159 - 12,8 14 1.010,3
20:05 19,7 16,7 18,7 83,0 0,6 201 - 12,8 15 1.010,3
20:04 19,7 16,7 18,7 83,0 0,5 207 - 12,8 17 1.010,2
20:03 19,7 16,8 18,7 83,0 0,6 145 - 12,8 19 1.010,3
20:02 19,7 16,8 18,8 83,0 0,7 181 - 12,8 21 1.010,2
20:01 19,7 16,8 18,8 83,0 0,7 165 - 12,8 25 1.010,2
20:00 19,7 16,8 18,8 83,0 0,6 176 - 12,8 27 1.010,2
 
19:59 19,7 16,8 18,8 83,0 0,6 189 - 12,8 29 1.010,2
19:58 19,7 16,8 18,8 83,0 0,6 180 - 12,8 31 1.010,2
19:57 19,7 16,8 18,8 83,0 0,6 181 - 12,8 33 1.010,2
19:56 19,7 16,8 18,8 83,0 0,8 184 - 12,8 35 1.010,2
19:55 19,8 16,8 18,8 83,0 0,9 188 - 12,8 36 1.010,3
19:54 19,8 16,8 18,8 83,0 1,1 192 - 12,8 39 1.010,3
19:53 19,8 16,8 18,8 83,0 1,0 191 - 12,8 41 1.010,3
19:52 19,8 16,8 18,8 83,0 0,8 180 - 12,8 43 1.010,3
19:51 19,8 16,9 18,8 83,0 0,7 188 - 12,8 44 1.010,3
19:50 19,8 16,9 18,8 83,0 0,8 203 - 12,8 46 1.010,3
19:49 19,8 16,9 18,8 83,0 1,1 203 - 12,8 47 1.010,3
19:48 19,8 16,9 18,9 83,0 1,2 186 - 12,8 47 1.010,3
19:47 19,8 16,9 18,9 83,0 1,0 205 - 12,8 48 1.010,3
19:46 19,8 16,9 18,9 83,0 0,8 197 - 12,8 49 1.010,3
19:45 19,8 16,9 18,9 83,0 0,9 198 - 12,8 49 1.010,4
19:44 19,8 16,9 18,9 83,0 1,1 207 - 12,8 49 1.010,3
19:43 19,8 16,9 18,9 83,0 1,1 205 - 12,8 49 1.010,2
19:42 19,8 16,9 18,9 83,0 1,2 185 - 12,8 48 1.010,2
19:41 19,8 16,9 18,9 83,0 1,4 192 - 12,8 47 1.010,3
19:40 19,8 16,9 18,9 83,0 1,3 192 - 12,8 48 1.010,3
19:39 19,8 16,9 18,9 83,0 1,0 202 - 12,8 49 1.010,4
19:38 19,8 16,9 18,9 83,0 1,0 199 - 12,8 49 1.010,5
19:37 19,8 16,9 18,9 83,0 1,0 201 - 12,8 48 1.010,5
19:36 19,8 16,9 18,9 83,0 1,2 186 - 12,8 49 1.010,5
19:35 19,8 16,9 18,9 83,0 1,4 185 - 12,8 49 1.010,5
19:34 19,8 16,9 18,9 83,0 1,6 186 - 12,8 50 1.010,5
19:33 19,8 16,9 18,9 83,0 1,4 211 - 12,8 53 1.010,4
19:32 19,8 16,9 18,9 83,0 1,3 184 - 12,8 54 1.010,5
19:31 19,8 16,9 18,9 83,0 1,3 207 - 12,8 55 1.010,5
19:30 19,8 16,9 18,9 83,0 1,4 210 - 12,8 58 1.010,5
19:29 19,8 16,9 18,9 83,0 1,7 218 - 12,8 61 1.010,5
19:28 19,8 16,9 18,9 83,0 1,9 197 - 12,8 63 1.010,5
19:27 19,8 16,9 18,9 83,0 2,1 201 - 12,8 63 1.010,5
19:26 19,8 16,9 18,9 83,0 2,2 196 - 12,8 64 1.010,5
19:25 19,8 16,9 18,9 83,0 2,2 213 - 12,8 67 1.010,5
19:24 19,8 16,9 18,9 83,0 2,0 209 - 12,8 68 1.010,5
19:23 19,8 16,9 18,9 83,0 2,1 195 - 12,8 71 1.010,5
19:22 19,8 16,9 18,9 83,0 2,3 217 - 12,8 75 1.010,5
19:21 19,9 16,9 18,9 83,0 2,4 198 - 12,8 79 1.010,5
19:20 19,9 16,9 18,9 83,0 2,3 213 - 12,8 81 1.010,5
19:19 19,9 16,9 18,9 83,0 2,2 199 - 12,8 83 1.010,5
19:18 19,9 16,9 18,9 83,0 2,4 206 - 12,8 83 1.010,5
19:17 19,9 16,9 18,9 83,0 2,4 213 - 12,8 84 1.010,5
19:16 19,9 16,9 18,9 83,0 2,4 211 - 12,8 86 1.010,6
19:15 19,9 16,9 18,9 83,0 2,4 215 - 12,8 88 1.010,6
19:14 19,9 17,0 18,9 83,0 2,5 205 - 12,8 88 1.010,6
19:13 19,9 17,0 18,9 83,0 2,3 195 - 12,8 90 1.010,6
19:12 19,9 17,0 18,9 83,0 2,1 233 - 12,8 92 1.010,6
19:11 19,9 17,0 18,9 83,0 2,1 205 - 12,8 97 1.010,6
19:10 19,9 17,0 19,0 83,0 2,1 211 - 12,8 98 1.010,6
19:09 19,9 17,0 19,0 83,0 1,9 212 - 12,8 110 1.010,6
19:08 19,9 17,0 19,0 83,0 1,6 211 - 12,8 110 1.010,6
19:07 19,9 17,0 18,9 83,0 1,6 195 - 12,8 99 1.010,6
19:06 19,9 16,9 18,9 83,0 1,9 216 - 12,8 94 1.010,5
19:05 19,9 16,9 18,9 83,0 1,9 198 - 12,8 96 1.010,6
19:04 19,9 16,9 18,9 83,0 1,8 209 - 12,8 95 1.010,6
19:03 19,8 16,9 18,9 83,0 2,0 217 - 12,8 106 1.010,6
19:02 19,8 16,9 18,9 83,0 2,3 199 - 12,8 109 1.010,6
19:01 19,8 16,9 18,9 83,0 2,3 199 - 12,8 99 1.010,5
19:00 19,8 16,9 18,9 83,0 2,2 214 - 12,8 92 1.010,5
 
18:59 19,8 16,8 18,8 83,0 2,2 204 - 12,8 105 1.010,6
18:58 19,8 16,8 18,8 83,0 2,3 213 - 12,8 123 1.010,6
18:57 19,8 16,8 18,8 83,0 2,4 215 - 12,8 113 1.010,6
18:56 19,8 16,8 18,8 83,0 2,8 211 - 12,8 100 1.010,6
18:55 19,8 16,8 18,8 83,0 3,1 228 - 12,8 91 1.010,6
18:54 19,7 16,8 18,8 83,0 3,2 226 - 12,8 87 1.010,6
18:53 19,8 16,8 18,8 83,0 3,4 209 - 12,8 86 1.010,7
18:52 19,8 16,8 18,8 83,0 3,6 211 - 12,8 86 1.010,6
18:51 19,8 16,8 18,8 83,0 3,4 215 - 12,8 86 1.010,6
18:50 19,7 16,8 18,8 83,0 3,2 232 - 12,8 89 1.010,6
18:49 19,8 16,8 18,8 83,0 3,5 228 - 12,8 90 1.010,6
18:48 19,8 16,8 18,8 83,0 3,6 229 - 12,8 92 1.010,6
18:47 19,8 16,8 18,8 83,0 3,5 196 - 12,8 94 1.010,6
18:46 19,8 17,0 18,9 83,5 3,1 234 - 12,8 97 1.010,6
18:45 19,8 17,1 19,0 84,0 3,2 265 - 12,8 100 1.010,6
18:44 19,8 17,1 19,0 84,0 2,8 234 - 12,8 103 1.010,6
18:43 19,8 17,1 19,0 84,0 2,8 210 - 12,8 104 1.010,6
18:42 19,8 17,0 19,0 84,0 3,0 221 - 12,8 106 1.010,6
18:41 19,8 17,0 18,9 83,7 3,2 219 - 12,8 107 1.010,6
18:40 19,8 17,0 18,9 83,5 3,4 223 - 12,8 109 1.010,6
18:39 19,8 16,9 18,9 83,4 3,4 218 - 12,8 109 1.010,6
18:38 19,8 16,9 18,9 83,0 3,4 226 - 12,8 112 1.010,6
18:37 19,8 16,9 18,9 83,1 3,6 223 - 12,8 113 1.010,6
18:36 19,8 17,1 19,0 84,0 3,8 230 - 12,8 114 1.010,6
18:35 19,8 17,1 19,0 84,0 3,4 242 - 12,8 114 1.010,6
18:34 19,8 17,1 19,0 84,0 2,9 228 - 12,8 113 1.010,6
18:33 19,8 17,1 19,0 84,0 2,5 227 - 12,8 113 1.010,6
18:32 19,8 17,0 19,0 84,0 2,8 159 - 12,8 113 1.010,7
18:31 19,8 16,9 18,8 83,1 3,1 208 - 12,8 115 1.010,7
18:30 19,8 16,8 18,8 83,0 4,1 228 - 12,8 116 1.010,6
18:29 19,8 16,8 18,8 83,0 4,6 223 - 12,8 118 1.010,7
18:28 19,8 17,0 18,9 83,6 4,5 220 - 12,8 120 1.010,6
18:27 19,8 17,1 19,0 84,0 4,0 207 - 12,8 120 1.010,6
18:26 19,8 17,0 19,0 84,0 3,5 238 - 12,8 122 1.010,6
18:25 19,8 17,1 19,0 84,0 3,3 208 - 12,8 123 1.010,6
18:24 19,8 17,0 19,0 84,0 3,4 226 - 12,8 126 1.010,7
18:23 19,8 17,0 19,0 84,0 3,8 247 - 12,8 127 1.010,6
18:22 19,8 17,0 19,0 84,0 4,1 229 - 12,8 128 1.010,6
18:21 19,8 17,0 19,0 84,0 4,1 229 - 12,8 133 1.010,6
18:20 19,8 17,0 18,9 84,0 3,9 225 - 12,8 137 1.010,6
18:19 19,8 17,0 18,9 84,0 4,0 259 - 12,8 139 1.010,6
18:18 19,8 17,0 18,9 84,0 4,4 233 - 12,8 141 1.010,6
18:17 19,8 17,0 19,0 84,0 4,7 236 - 12,8 143 1.010,6
18:16 19,8 17,0 19,0 84,0 4,9 240 - 12,8 146 1.010,6
18:15 19,8 17,0 19,0 84,0 5,0 224 - 12,8 145 1.010,6
18:14 19,8 17,0 18,9 84,0 4,8 219 - 12,8 142 1.010,6
18:13 19,8 17,0 19,0 84,0 5,0 252 - 12,8 141 1.010,6
18:12 19,8 17,0 19,0 84,0 5,4 232 - 12,8 141 1.010,6
18:11 19,8 17,0 18,9 84,0 5,6 230 - 12,8 139 1.010,6
18:10 19,8 17,0 19,0 84,0 5,5 233 - 12,8 139 1.010,5
18:09 19,8 17,0 19,0 84,0 5,4 242 - 12,8 137 1.010,5
18:08 19,8 17,0 19,0 84,0 5,4 250 - 12,8 135 1.010,5
18:07 19,8 17,0 18,9 83,8 5,5 257 - 12,8 134 1.010,6
18:06 19,8 16,9 18,9 83,4 5,7 236 - 12,8 133 1.010,6
18:05 19,8 17,0 19,0 84,0 5,8 236 - 12,8 132 1.010,6
18:04 19,8 17,1 19,0 84,0 5,7 223 - 12,8 132 1.010,6
18:03 19,8 17,1 19,0 84,0 5,7 213 - 12,8 130 1.010,6
18:02 19,8 17,1 19,0 83,9 5,5 205 - 12,8 130 1.010,6
18:01 19,8 16,9 18,9 83,0 5,5 217 - 12,8 131 1.010,6
18:00 19,8 16,9 18,9 83,0 5,8 183 - 12,8 133 1.010,6
 
17:59 19,8 16,9 18,9 83,0 5,8 225 - 12,8 135 1.010,6
17:58 19,8 16,9 18,9 83,0 6,2 250 - 12,8 137 1.010,6
17:57 19,8 16,9 18,9 83,0 6,3 234 - 12,8 140 1.010,5
17:56 19,8 16,9 18,9 83,0 6,4 227 - 12,8 141 1.010,5
17:55 19,9 16,9 18,9 83,0 6,3 251 - 12,8 142 1.010,6
17:54 19,9 16,9 18,9 83,0 6,1 232 - 12,8 147 1.010,6
17:53 19,9 17,0 19,0 83,0 5,8 239 - 12,8 151 1.010,6
17:52 19,9 17,0 19,0 83,0 5,7 212 - 12,8 154 1.010,6
17:51 20,0 17,0 19,0 83,0 5,5 233 - 12,8 156 1.010,6
17:50 20,0 17,0 19,0 83,0 5,3 215 - 12,8 156 1.010,6
17:49 19,9 17,0 19,0 83,0 5,2 234 - 12,8 157 1.010,6
17:48 19,9 17,0 19,0 83,0 5,1 234 - 12,8 161 1.010,6
17:47 19,9 17,0 19,0 83,0 5,3 244 - 12,8 165 1.010,6
17:46 19,9 17,0 19,0 83,0 5,7 244 - 12,8 167 1.010,6
17:45 20,0 17,0 19,0 83,0 5,5 233 - 12,8 170 1.010,6
17:44 19,9 17,0 19,0 83,0 5,2 206 - 12,8 174 1.010,6
17:43 19,9 17,0 19,0 83,0 5,6 254 - 12,8 178 1.010,6
17:42 19,9 17,0 19,0 83,0 6,2 238 - 12,8 181 1.010,6
17:41 20,0 17,0 19,0 83,0 6,2 227 - 12,8 183 1.010,6
17:40 19,9 17,0 19,0 83,0 6,1 236 - 12,8 187 1.010,6
17:39 20,0 17,0 19,0 83,0 6,3 239 - 12,8 197 1.010,6
17:38 20,0 16,9 18,9 82,2 6,7 218 - 12,8 206 1.010,6
17:37 20,0 17,1 19,1 83,0 6,9 227 - 12,8 207 1.010,6
17:36 20,1 17,1 19,1 83,0 6,2 217 - 12,8 205 1.010,7
17:35 20,1 17,1 19,1 83,0 5,4 206 - 12,8 196 1.010,7
17:34 20,1 17,1 19,1 83,0 5,2 225 - 12,8 198 1.010,7
17:33 20,1 17,1 19,1 83,0 5,1 209 - 12,8 206 1.010,7
17:32 20,1 16,9 19,0 82,0 4,8 238 - 12,8 211 1.010,7
17:31 20,1 16,9 18,9 82,0 4,6 208 - 12,8 210 1.010,7
17:30 20,0 16,9 18,9 82,0 4,5 216 - 12,8 205 1.010,7
17:29 20,0 16,9 18,9 82,0 4,6 232 - 12,8 204 1.010,6
17:28 20,0 16,9 18,9 82,0 4,6 234 - 12,8 206 1.010,7
17:27 20,0 16,9 18,9 82,0 4,6 244 - 12,8 217 1.010,6
17:26 20,0 16,9 18,9 82,0 4,5 225 - 12,8 230 1.010,6
17:25 20,0 16,9 18,9 82,0 4,9 209 - 12,8 230 1.010,7
17:24 20,0 16,9 18,9 82,0 4,9 221 - 12,8 224 1.010,7
17:23 20,0 16,9 18,9 82,0 4,7 203 - 12,8 221 1.010,7
17:22 20,0 16,8 18,9 82,0 5,0 247 - 12,8 223 1.010,7
17:21 20,0 16,8 18,8 82,0 5,5 246 - 12,8 227 1.010,7
17:20 20,0 16,8 18,8 82,0 4,9 231 - 12,8 220 1.010,7
17:19 20,0 16,8 18,8 82,0 4,7 187 - 12,8 240 1.010,8
17:18 19,9 16,8 18,8 82,0 4,7 215 - 12,8 241 1.010,7
17:17 19,9 16,8 18,8 82,0 5,0 227 - 12,8 244 1.010,7
17:16 19,9 16,8 18,8 82,0 5,2 226 - 12,8 245 1.010,7
17:15 19,9 16,8 18,8 82,0 5,2 230 - 12,8 241 1.010,8
17:14 19,9 16,8 18,8 82,0 5,6 206 - 12,8 246 1.010,8
17:13 19,9 16,8 18,8 82,0 5,8 207 - 12,8 252 1.010,8
17:12 19,9 16,9 18,9 82,6 5,8 229 - 12,8 250 1.010,7
17:11 19,9 16,9 18,9 83,0 5,5 219 - 12,8 232 1.010,7
17:10 19,9 16,9 18,9 83,0 5,3 226 - 12,8 221 1.010,8
17:09 19,8 16,9 18,9 83,0 5,1 253 - 12,8 216 1.010,8
17:08 19,8 16,9 18,9 83,0 4,8 219 - 12,8 205 1.010,7
17:07 19,8 16,9 18,9 83,0 4,7 214 - 12,8 210 1.010,7
17:06 19,8 16,9 18,8 83,0 4,7 207 - 12,8 214 1.010,7
17:05 19,8 16,8 18,8 83,0 4,9 239 - 12,8 238 1.010,8
17:04 19,8 16,8 18,8 83,0 5,2 253 - 12,8 259 1.010,8
17:03 19,7 16,8 18,8 83,0 5,3 214 - 12,8 276 1.010,8
17:02 19,7 16,8 18,8 83,0 5,4 242 - 12,8 295 1.010,8
17:01 19,7 16,8 18,7 83,0 5,3 232 - 12,8 296 1.010,7
17:00 19,7 16,7 18,7 83,0 4,7 251 - 12,8 228 1.010,8
 
16:59 19,7 16,7 18,7 83,0 4,3 217 - 12,8 202 1.010,8
16:58 19,6 16,7 18,6 83,0 4,4 247 - 12,8 204 1.010,8
16:57 19,6 16,6 18,6 83,0 5,0 200 - 12,8 208 1.010,8
16:56 19,6 16,6 18,6 83,0 5,3 224 - 12,8 208 1.010,8
16:55 19,5 16,6 18,6 83,0 5,3 240 - 12,8 201 1.010,8
16:54 19,5 16,7 18,6 83,6 4,8 234 - 12,8 195 1.010,8
16:53 19,5 16,7 18,7 84,0 5,0 236 - 12,8 198 1.010,8
16:52 19,5 16,7 18,6 84,0 5,3 234 - 12,8 199 1.010,7
16:51 19,5 16,7 18,6 84,0 5,3 190 - 12,8 199 1.010,8
16:50 19,4 16,7 18,7 84,4 5,0 217 - 12,8 198 1.010,8
16:49 19,4 16,8 18,7 85,0 4,6 219 - 12,8 194 1.010,8
16:48 19,4 16,8 18,7 85,0 5,0 231 - 12,8 184 1.010,8
16:47 19,3 16,8 18,6 85,0 5,7 253 - 12,8 168 1.010,8
16:46 19,3 16,8 18,6 85,0 5,9 244 - 12,8 154 1.010,8
16:45 19,3 16,7 18,6 85,0 5,3 236 - 12,8 139 1.010,8
16:44 19,3 16,7 18,6 85,0 4,9 209 - 12,8 126 1.010,8
16:43 19,3 16,8 18,7 85,5 4,9 236 - 12,8 117 1.010,8
16:42 19,3 16,9 18,7 86,0 5,0 204 - 12,8 111 1.010,8
16:41 19,3 16,9 18,7 86,0 5,3 234 - 12,8 113 1.010,8
16:40 19,3 17,0 18,9 87,0 5,5 237 - 12,8 121 1.010,8
16:39 19,2 17,0 18,8 86,8 5,5 236 - 12,8 136 1.010,7
16:38 19,2 16,9 18,7 86,4 5,4 211 - 12,8 155 1.010,7
16:37 19,2 17,0 18,8 87,0 5,4 260 - 12,8 172 1.010,7
16:36 19,2 17,0 18,8 87,0 5,2 228 - 12,8 180 1.010,8
16:35 19,2 17,0 18,8 87,0 5,3 217 - 12,8 178 1.010,7
16:34 19,2 17,0 18,8 87,0 5,6 228 - 12,8 169 1.010,7
16:33 19,2 17,0 18,8 86,8 5,2 208 - 12,8 163 1.010,7
16:32 19,2 16,8 18,7 86,0 5,1 235 - 12,8 174 1.010,7
16:31 19,2 16,8 18,7 86,0 6,3 219 - 12,8 203 1.010,7
16:30 19,2 16,9 18,8 86,7 5,7 228 - 12,8 239 1.010,7
16:29 19,2 17,0 18,8 87,0 5,3 237 - 12,8 264 1.010,7
16:28 19,2 17,0 18,8 87,0 5,8 247 - 12,8 268 1.010,7
16:27 19,2 17,0 18,8 87,0 5,8 238 - 12,8 260 1.010,7
16:26 19,1 16,9 18,7 87,0 4,8 219 - 12,8 252 1.010,7
16:25 19,1 16,9 18,7 87,0 4,8 257 - 12,8 246 1.010,7
16:24 19,0 16,8 18,6 87,0 5,5 205 - 12,8 247 1.010,7
16:23 19,0 16,8 18,6 87,0 5,4 286 - 12,8 253 1.010,7
16:22 19,0 16,8 18,6 87,0 6,2 232 - 12,8 262 1.010,6